DO7DH-5 Weather Reports


time (UTC)temp
C
wind
direction
speed
KPH
gust
KPH
rain 1hr
cm
rain 24hr
cm
rain mn
cm
humidity
%
barometer
mb
20260505140644 25 0.0 0.0 0.00 0.00 0.00 27 1005.7
20260505140612 25 0.0 0.0 0.00 0.00 0.00 27 1005.8
20260505140541 25 0.0 0.0 0.00 0.00 0.00 27 1005.7
20260505140509 25 0.0 0.0 0.00 0.00 0.00 26 1005.7
20260505140438 25 0.0 0.0 0.00 0.00 0.00 26 1005.7
20260505140406 25 0.0 0.0 0.00 0.00 0.00 26 1005.8
20260505140335 25 0.0 0.0 0.00 0.00 0.00 26 1005.8
20260505140303 25 0.0 0.0 0.00 0.00 0.00 26 1005.8
20260505140231 25 0.0 0.0 0.00 0.00 0.00 26 1005.8
20260505140159 25 0.0 0.0 0.00 0.00 0.00 26 1005.8
20260505140128 25 0.0 0.0 0.00 0.00 0.00 26 1005.8
20260505130302 27 0.0 0.0 0.00 0.00 0.00 24 1006.0
20260505130231 27 0.0 0.0 0.00 0.00 0.00 24 1006.0
20260505130159 27 0.0 0.0 0.00 0.00 0.00 24 1006.0
20260505130128 27 0.0 0.0 0.00 0.00 0.00 24 1006.0
20260505125025 27 0.0 0.0 0.00 0.00 0.00 23 1006.2
20260505124954 27 0.0 0.0 0.00 0.00 0.00 23 1006.2
20260505124922 27 0.0 0.0 0.00 0.00 0.00 23 1006.1
20260505124850 27 0.0 0.0 0.00 0.00 0.00 23 1006.1
20260505124819 27 0.0 0.0 0.00 0.00 0.00 24 1006.2
20260505124748 27 0.0 0.0 0.00 0.00 0.00 24 1006.2
20260505124716 28 0.0 0.0 0.00 0.00 0.00 24 1006.2
20260505124644 27 0.0 0.0 0.00 0.00 0.00 24 1006.1
20260505124613 27 0.0 0.0 0.00 0.00 0.00 24 1006.1
20260505124541 27 0.0 0.0 0.00 0.00 0.00 24 1006.1
20260505124510 27 0.0 0.0 0.00 0.00 0.00 24 1006.2
20260505124438 27 0.0 0.0 0.00 0.00 0.00 24 1006.2
20260505124407 28 0.0 0.0 0.00 0.00 0.00 25 1006.2
20260505124335 27 0.0 0.0 0.00 0.00 0.00 25 1006.2
20260505124304 27 0.0 0.0 0.00 0.00 0.00 25 1006.2
20260505124232 27 0.0 0.0 0.00 0.00 0.00 25 1006.2
20260505124201 27 0.0 0.0 0.00 0.00 0.00 24 1006.2
20260505124129 27 0.0 0.0 0.00 0.00 0.00 25 1006.2
20260505124058 27 0.0 0.0 0.00 0.00 0.00 25 1006.3
20260505124027 27 0.0 0.0 0.00 0.00 0.00 25 1006.3
20260505123955 28 0.0 0.0 0.00 0.00 0.00 25 1006.2
20260505123923 28 0.0 0.0 0.00 0.00 0.00 25 1006.2
20260505123851 28 0.0 0.0 0.00 0.00 0.00 25 1006.3
20260505123820 27 0.0 0.0 0.00 0.00 0.00 25 1006.3
20260505123748 27 0.0 0.0 0.00 0.00 0.00 24 1006.3
20260505123717 27 0.0 0.0 0.00 0.00 0.00 25 1006.3
20260505123645 27 0.0 0.0 0.00 0.00 0.00 25 1006.3
20260505123614 27 0.0 0.0 0.00 0.00 0.00 25 1006.3
20260505123542 27 0.0 0.0 0.00 0.00 0.00 25 1006.3
20260505123511 27 0.0 0.0 0.00 0.00 0.00 25 1006.3
20260505123439 28 0.0 0.0 0.00 0.00 0.00 25 1006.3
20260505123408 28 0.0 0.0 0.00 0.00 0.00 25 1006.3
20260505123336 27 0.0 0.0 0.00 0.00 0.00 25 1006.3
20260505123305 27 0.0 0.0 0.00 0.00 0.00 25 1006.3
20260505123233 27 0.0 0.0 0.00 0.00 0.00 25 1006.3
20260505123202 27 0.0 0.0 0.00 0.00 0.00 25 1006.4
20260505123130 27 0.0 0.0 0.00 0.00 0.00 25 1006.4
20260505123057 27 0.0 0.0 0.00 0.00 0.00 25 1006.4
20260505123026 27 0.0 0.0 0.00 0.00 0.00 25 1006.4
20260505122954 26 0.0 0.0 0.00 0.00 0.00 25 1006.4
20260505122923 26 0.0 0.0 0.00 0.00 0.00 24 1006.4
20260505122852 26 0.0 0.0 0.00 0.00 0.00 99 1006.4
20260505122820 26 0.0 0.0 0.00 0.00 0.00 24 1006.4
20260505122748 26 0.0 0.0 0.00 0.00 0.00 24 1006.4
20260505122717 26 0.0 0.0 0.00 0.00 0.00 24 1006.4
20260505122645 26 0.0 0.0 0.00 0.00 0.00 24 1006.4
20260505122613 26 0.0 0.0 0.00 0.00 0.00 24 1006.4
20260505122542 26 0.0 0.0 0.00 0.00 0.00 24 1006.4
20260505122510 26 0.0 0.0 0.00 0.00 0.00 24 1006.4
20260505122439 26 0.0 0.0 0.00 0.00 0.00 24 1006.4
20260505122407 27 0.0 0.0 0.00 0.00 0.00 24 1006.4
20260505122336 27 0.0 0.0 0.00 0.00 0.00 24 1006.4
20260505122305 27 0.0 0.0 0.00 0.00 0.00 24 1006.4
20260505122233 27 0.0 0.0 0.00 0.00 0.00 24 1006.4
20260505122201 27 0.0 0.0 0.00 0.00 0.00 25 1006.4
20260505122130 27 0.0 0.0 0.00 0.00 0.00 25 1006.4
20260505122058 27 0.0 0.0 0.00 0.00 0.00 25 1006.4
20260505122027 27 0.0 0.0 0.00 0.00 0.00 25 1006.4
20260505121955 27 0.0 0.0 0.00 0.00 0.00 25 1006.4
20260505121924 27 0.0 0.0 0.00 0.00 0.00 25 1006.4
20260505121852 27 0.0 0.0 0.00 0.00 0.00 25 1006.4
20260505121821 27 0.0 0.0 0.00 0.00 0.00 25 1006.4
20260505121749 27 0.0 0.0 0.00 0.00 0.00 25 1006.4
20260505121717 27 0.0 0.0 0.00 0.00 0.00 25 1006.4
20260505121645 27 0.0 0.0 0.00 0.00 0.00 25 1006.4
20260505121613 27 0.0 0.0 0.00 0.00 0.00 25 1006.4
20260505121542 27 0.0 0.0 0.00 0.00 0.00 25 1006.4
20260505121510 28 0.0 0.0 0.00 0.00 0.00 25 1006.4
20260505121438 28 0.0 0.0 0.00 0.00 0.00 25 1006.4
20260505121407 28 0.0 0.0 0.00 0.00 0.00 25 1006.5
20260505121335 28 0.0 0.0 0.00 0.00 0.00 26 1006.5
20260505121304 28 0.0 0.0 0.00 0.00 0.00 26 1006.5
20260505121232 28 0.0 0.0 0.00 0.00 0.00 26 1006.5
20260505121200 28 0.0 0.0 0.00 0.00 0.00 26 1006.5
20260505121129 28 0.0 0.0 0.00 0.00 0.00 26 1006.5
20260505121058 28 0.0 0.0 0.00 0.00 0.00 26 1006.5
20260505121026 28 0.0 0.0 0.00 0.00 0.00 26 1006.5
20260505120954 28 0.0 0.0 0.00 0.00 0.00 26 1006.6
20260505120923 28 0.0 0.0 0.00 0.00 0.00 26 1006.6
20260505120851 28 0.0 0.0 0.00 0.00 0.00 26 1006.6
20260505120820 28 0.0 0.0 0.00 0.00 0.00 26 1006.5
20260505120748 28 0.0 0.0 0.00 0.00 0.00 26 1006.6
20260505120717 28 0.0 0.0 0.00 0.00 0.00 26 1006.6
20260505120645 27 0.0 0.0 0.00 0.00 0.00 26 1006.6
20260505120614 27 0.0 0.0 0.00 0.00 0.00 26 1006.6
20260505120542 27 0.0 0.0 0.00 0.00 0.00 26 1006.6
20260505120510 27 0.0 0.0 0.00 0.00 0.00 26 1006.6
20260505120439 27 0.0 0.0 0.00 0.00 0.00 26 1006.6
20260505120407 27 0.0 0.0 0.00 0.00 0.00 26 1006.6
20260505120336 27 0.0 0.0 0.00 0.00 0.00 26 1006.6
20260505120303 27 0.0 0.0 0.00 0.00 0.00 26 1006.6
20260505120232 27 0.0 0.0 0.00 0.00 0.00 25 1006.6
20260505120200 27 0.0 0.0 0.00 0.00 0.00 25 1006.6
20260505120128 27 0.0 0.0 0.00 0.00 0.00 25 1006.6
20260505120056 27 0.0 0.0 0.00 0.00 0.00 25 1006.6
20260505120025 27 0.0 0.0 0.00 0.00 0.00 25 1006.7
20260505115953 27 0.0 0.0 0.00 0.00 0.00 25 1006.7
20260505115921 27 0.0 0.0 0.00 0.00 0.00 25 1006.7
20260505115849 27 0.0 0.0 0.00 0.00 0.00 25 1006.7
20260505115746 27 0.0 0.0 0.00 0.00 0.00 25 1006.7
20260505115714 27 0.0 0.0 0.00 0.00 0.00 25 1006.7
20260505115643 27 0.0 0.0 0.00 0.00 0.00 25 1006.8
20260505115611 27 0.0 0.0 0.00 0.00 0.00 25 1006.8
20260505115540 27 0.0 0.0 0.00 0.00 0.00 25 1006.8
20260505115508 27 0.0 0.0 0.00 0.00 0.00 25 1006.8
20260505115436 27 0.0 0.0 0.00 0.00 0.00 26 1006.8
20260505115405 27 0.0 0.0 0.00 0.00 0.00 26 1006.8
20260505115333 27 0.0 0.0 0.00 0.00 0.00 26 1006.8
20260505115304 27 0.0 0.0 0.00 0.00 0.00 26 1006.8
20260505115230 27 0.0 0.0 0.00 0.00 0.00 26 1006.8
20260505115159 27 0.0 0.0 0.00 0.00 0.00 25 1006.9
20260505115127 27 0.0 0.0 0.00 0.00 0.00 26 1006.9
20260505115055 27 0.0 0.0 0.00 0.00 0.00 27 1006.9
20260505115023 27 0.0 0.0 0.00 0.00 0.00 27 1006.9
20260505114952 27 0.0 0.0 0.00 0.00 0.00 27 1006.9
20260505114920 27 0.0 0.0 0.00 0.00 0.00 26 1006.9
20260505114848 27 0.0 0.0 0.00 0.00 0.00 26 1006.9
20260505114817 27 0.0 0.0 0.00 0.00 0.00 26 1006.9
20260505114745 27 0.0 0.0 0.00 0.00 0.00 26 1006.9
20260505114714 27 0.0 0.0 0.00 0.00 0.00 26 1006.9
20260505114642 27 0.0 0.0 0.00 0.00 0.00 26 1006.9
20260505114610 27 0.0 0.0 0.00 0.00 0.00 26 1006.9
20260505114539 27 0.0 0.0 0.00 0.00 0.00 26 1006.9
20260505114507 27 0.0 0.0 0.00 0.00 0.00 26 1007.0
20260505114436 27 0.0 0.0 0.00 0.00 0.00 26 1006.9
20260505114404 27 0.0 0.0 0.00 0.00 0.00 26 1007.0
20260505114332 27 0.0 0.0 0.00 0.00 0.00 26 1007.0
20260505114301 27 0.0 0.0 0.00 0.00 0.00 26 1007.0
20260505114229 27 0.0 0.0 0.00 0.00 0.00 26 1007.0
20260505114158 27 0.0 0.0 0.00 0.00 0.00 26 1007.0
20260505114127 27 0.0 0.0 0.00 0.00 0.00 27 1007.0
20260505114054 27 0.0 0.0 0.00 0.00 0.00 26 1007.0
20260505114022 27 0.0 0.0 0.00 0.00 0.00 27 1007.1
20260505113924 27 0.0 0.0 0.00 0.00 0.00 27 1007.1
20260505113848 27 0.0 0.0 0.00 0.00 0.00 27 1007.1
20260505113816 27 0.0 0.0 0.00 0.00 0.00 27 1007.1
20260505113745 27 0.0 0.0 0.00 0.00 0.00 27 1007.1
20260505113713 27 0.0 0.0 0.00 0.00 0.00 27 1007.1
20260505113641 27 0.0 0.0 0.00 0.00 0.00 27 1007.1
20260505113610 27 0.0 0.0 0.00 0.00 0.00 27 1007.1
20260505113538 27 0.0 0.0 0.00 0.00 0.00 27 1007.1
20260505113507 27 0.0 0.0 0.00 0.00 0.00 27 1007.0
20260505113435 27 0.0 0.0 0.00 0.00 0.00 27 1007.1
20260505113404 27 0.0 0.0 0.00 0.00 0.00 27 1007.1
20260505113332 27 0.0 0.0 0.00 0.00 0.00 27 1007.1
20260505113301 27 0.0 0.0 0.00 0.00 0.00 27 1007.1
20260505113229 26 0.0 0.0 0.00 0.00 0.00 27 1007.1
20260505113158 26 0.0 0.0 0.00 0.00 0.00 26 1007.1
20260505113126 26 0.0 0.0 0.00 0.00 0.00 27 1007.1
20260505113055 26 0.0 0.0 0.00 0.00 0.00 26 1007.1
20260505113023 26 0.0 0.0 0.00 0.00 0.00 27 1007.1
20260505112952 26 0.0 0.0 0.00 0.00 0.00 26 1007.1
20260505112920 26 0.0 0.0 0.00 0.00 0.00 26 1007.1
20260505112849 26 0.0 0.0 0.00 0.00 0.00 26 1007.2
20260505112817 26 0.0 0.0 0.00 0.00 0.00 26 1007.2
20260505112745 26 0.0 0.0 0.00 0.00 0.00 26 1007.2
20260505112714 26 0.0 0.0 0.00 0.00 0.00 26 1007.2
20260505112642 26 0.0 0.0 0.00 0.00 0.00 26 1007.1
20260505112611 25 0.0 0.0 0.00 0.00 0.00 26 1007.2
20260505112539 25 0.0 0.0 0.00 0.00 0.00 25 1007.2
20260505112508 25 0.0 0.0 0.00 0.00 0.00 25 1007.2
20260505112436 25 0.0 0.0 0.00 0.00 0.00 25 1007.2
20260505112405 25 0.0 0.0 0.00 0.00 0.00 25 1007.2
20260505112333 25 0.0 0.0 0.00 0.00 0.00 25 1007.3
20260505112304 25 0.0 0.0 0.00 0.00 0.00 25 1007.3
20260505112230 25 0.0 0.0 0.00 0.00 0.00 25 1007.3
20260505112159 25 0.0 0.0 0.00 0.00 0.00 25 1007.3
20260505112127 25 0.0 0.0 0.00 0.00 0.00 25 1007.3
20260505112055 26 0.0 0.0 0.00 0.00 0.00 25 1007.3
20260505112023 26 0.0 0.0 0.00 0.00 0.00 26 1007.4
20260505111952 26 0.0 0.0 0.00 0.00 0.00 26 1007.4
20260505111920 26 0.0 0.0 0.00 0.00 0.00 26 1007.4
20260505111849 26 0.0 0.0 0.00 0.00 0.00 26 1007.4
20260505111817 26 0.0 0.0 0.00 0.00 0.00 26 1007.4
20260505111745 27 0.0 0.0 0.00 0.00 0.00 26 1007.4
20260505111713 27 0.0 0.0 0.00 0.00 0.00 27 1007.4
20260505111642 27 0.0 0.0 0.00 0.00 0.00 27 1007.4
20260505111610 27 0.0 0.0 0.00 0.00 0.00 27 1007.4
20260505111539 27 0.0 0.0 0.00 0.00 0.00 27 1007.4
20260505111507 27 0.0 0.0 0.00 0.00 0.00 27 1007.5
20260505111435 27 0.0 0.0 0.00 0.00 0.00 27 1007.5
20260505111404 27 0.0 0.0 0.00 0.00 0.00 27 1007.5
20260505111332 27 0.0 0.0 0.00 0.00 0.00 27 1007.5
20260505111301 26 0.0 0.0 0.00 0.00 0.00 27 1007.5
20260505111229 27 0.0 0.0 0.00 0.00 0.00 27 1007.5
20260505111158 27 0.0 0.0 0.00 0.00 0.00 27 1007.5
20260505111126 26 0.0 0.0 0.00 0.00 0.00 27 1007.5
20260505111054 26 0.0 0.0 0.00 0.00 0.00 27 1007.5
20260505111023 26 0.0 0.0 0.00 0.00 0.00 27 1007.5
20260505110951 26 0.0 0.0 0.00 0.00 0.00 27 1007.5
20260505110920 26 0.0 0.0 0.00 0.00 0.00 27 1007.5
20260505110848 26 0.0 0.0 0.00 0.00 0.00 27 1007.5
20260505110817 27 0.0 0.0 0.00 0.00 0.00 27 1007.6
20260505110745 27 0.0 0.0 0.00 0.00 0.00 27 1007.6
20260505110714 27 0.0 0.0 0.00 0.00 0.00 27 1007.5
20260505110642 27 0.0 0.0 0.00 0.00 0.00 28 1007.6
20260505110611 27 0.0 0.0 0.00 0.00 0.00 28 1007.6
20260505110539 27 0.0 0.0 0.00 0.00 0.00 28 1007.6
20260505110507 27 0.0 0.0 0.00 0.00 0.00 28 1007.6
20260505110436 27 0.0 0.0 0.00 0.00 0.00 28 1007.6
20260505110404 27 0.0 0.0 0.00 0.00 0.00 28 1007.6
20260505110333 27 0.0 0.0 0.00 0.00 0.00 28 1007.6
20260505110301 27 0.0 0.0 0.00 0.00 0.00 28 1007.6
20260505110229 27 0.0 0.0 0.00 0.00 0.00 28 1007.7
20260505110157 27 0.0 0.0 0.00 0.00 0.00 28 1007.7
20260505110126 26 0.0 0.0 0.00 0.00 0.00 28 1007.7
20260505102158 25 0.0 0.0 0.00 0.00 0.00 33 1008.2
20260505102126 25 0.0 0.0 0.00 0.00 0.00 33 1008.2
20260505102054 25 0.0 0.0 0.00 0.00 0.00 33 1008.3
20260505102022 25 0.0 0.0 0.00 0.00 0.00 33 1008.3
20260505101951 25 0.0 0.0 0.00 0.00 0.00 33 1008.3
20260505101919 25 0.0 0.0 0.00 0.00 0.00 33 1008.3
20260505101848 25 0.0 0.0 0.00 0.00 0.00 33 1008.4
20260505101815 25 0.0 0.0 0.00 0.00 0.00 33 1008.3
20260505101743 25 0.0 0.0 0.00 0.00 0.00 33 1008.3
20260505101712 25 0.0 0.0 0.00 0.00 0.00 33 1008.3
20260505101640 25 0.0 0.0 0.00 0.00 0.00 33 1008.4
20260505101608 24 0.0 0.0 0.00 0.00 0.00 33 1008.4
20260505101537 24 0.0 0.0 0.00 0.00 0.00 33 1008.4
20260505101505 23 0.0 0.0 0.00 0.00 0.00 32 1008.4
20260505101434 23 0.0 0.0 0.00 0.00 0.00 32 1008.4
20260505101402 23 0.0 0.0 0.00 0.00 0.00 32 1008.3
20260505101331 23 0.0 0.0 0.00 0.00 0.00 32 1008.4
20260505101259 23 0.0 0.0 0.00 0.00 0.00 32 1008.4
20260505101228 23 0.0 0.0 0.00 0.00 0.00 32 1008.4
20260505101156 23 0.0 0.0 0.00 0.00 0.00 32 1008.4
20260505101124 23 0.0 0.0 0.00 0.00 0.00 32 1008.4
20260505101053 23 0.0 0.0 0.00 0.00 0.00 32 1008.4
20260505101021 23 0.0 0.0 0.00 0.00 0.00 32 1008.4
20260505100918 23 0.0 0.0 0.00 0.00 0.00 32 1008.4
20260505100847 23 0.0 0.0 0.00 0.00 0.00 33 1008.4
20260505100815 23 0.0 0.0 0.00 0.00 0.00 33 1008.4
20260505100744 23 0.0 0.0 0.00 0.00 0.00 33 1008.5
20260505100712 23 0.0 0.0 0.00 0.00 0.00 33 1008.4
20260505100641 23 0.0 0.0 0.00 0.00 0.00 33 1008.4
20260505100609 24 0.0 0.0 0.00 0.00 0.00 34 1008.5
20260505100538 25 0.0 0.0 0.00 0.00 0.00 34 1008.5
20260505100506 25 0.0 0.0 0.00 0.00 0.00 35 1008.5
20260505100435 25 0.0 0.0 0.00 0.00 0.00 35 1008.5
20260505100403 25 0.0 0.0 0.00 0.00 0.00 36 1008.5
20260505100331 25 0.0 0.0 0.00 0.00 0.00 36 1008.5
20260505100300 25 0.0 0.0 0.00 0.00 0.00 36 1008.5
20260505100228 25 0.0 0.0 0.00 0.00 0.00 37 1008.5
20260505100157 25 0.0 0.0 0.00 0.00 0.00 37 1008.5
20260505100125 25 0.0 0.0 0.00 0.00 0.00 37 1008.5
20260505100054 25 0.0 0.0 0.00 0.00 0.00 36 1008.5
20260505100022 25 0.0 0.0 0.00 0.00 0.00 36 1008.5
20260505095951 25 0.0 0.0 0.00 0.00 0.00 37 1008.5
20260505095919 25 0.0 0.0 0.00 0.00 0.00 37 1008.5
20260505095845 25 0.0 0.0 0.00 0.00 0.00 37 1008.5
20260505095814 25 0.0 0.0 0.00 0.00 0.00 37 1008.5
20260505095742 24 0.0 0.0 0.00 0.00 0.00 37 1008.5
20260505095711 24 0.0 0.0 0.00 0.00 0.00 37 1008.6
20260505095639 24 0.0 0.0 0.00 0.00 0.00 37 1008.6
20260505095608 24 0.0 0.0 0.00 0.00 0.00 37 1008.6
20260505095535 23 0.0 0.0 0.00 0.00 0.00 37 1008.6
20260505095503 23 0.0 0.0 0.00 0.00 0.00 37 1008.6
20260505095431 23 0.0 0.0 0.00 0.00 0.00 37 1008.6
20260505095400 23 0.0 0.0 0.00 0.00 0.00 37 1008.6
20260505095326 23 0.0 0.0 0.00 0.00 0.00 37 1008.6
20260505095255 23 0.0 0.0 0.00 0.00 0.00 37 1008.6
20260505095223 23 0.0 0.0 0.00 0.00 0.00 37 1008.6
20260505095151 24 0.0 0.0 0.00 0.00 0.00 39 1008.6
20260505095120 24 0.0 0.0 0.00 0.00 0.00 39 1008.6
20260505095048 24 0.0 0.0 0.00 0.00 0.00 39 1008.6
20260505095017 24 0.0 0.0 0.00 0.00 0.00 39 1008.6
20260505094945 24 0.0 0.0 0.00 0.00 0.00 39 1008.7
20260505094914 24 0.0 0.0 0.00 0.00 0.00 39 1008.7
20260505094842 24 0.0 0.0 0.00 0.00 0.00 39 1008.7
20260505094811 23 0.0 0.0 0.00 0.00 0.00 39 1008.7
20260505094739 23 0.0 0.0 0.00 0.00 0.00 39 1008.7
20260505094707 23 0.0 0.0 0.00 0.00 0.00 39 1008.7
20260505094636 23 0.0 0.0 0.00 0.00 0.00 40 1008.7
20260505094604 23 0.0 0.0 0.00 0.00 0.00 40 1008.8
20260505094533 23 0.0 0.0 0.00 0.00 0.00 40 1008.7
20260505094501 23 0.0 0.0 0.00 0.00 0.00 40 1008.7
20260505094430 23 0.0 0.0 0.00 0.00 0.00 40 1008.8
20260505094358 23 0.0 0.0 0.00 0.00 0.00 40 1008.8
20260505094327 23 0.0 0.0 0.00 0.00 0.00 40 1008.8
20260505094255 23 0.0 0.0 0.00 0.00 0.00 40 1008.8
20260505094224 23 0.0 0.0 0.00 0.00 0.00 40 1008.8
20260505094152 23 0.0 0.0 0.00 0.00 0.00 40 1008.8
20260505094121 23 0.0 0.0 0.00 0.00 0.00 40 1008.8
20260505094049 23 0.0 0.0 0.00 0.00 0.00 40 1008.8
20260505094018 23 0.0 0.0 0.00 0.00 0.00 40 1008.8
20260505093945 23 0.0 0.0 0.00 0.00 0.00 40 1008.8
20260505093913 23 0.0 0.0 0.00 0.00 0.00 40 1008.8
20260505093842 23 0.0 0.0 0.00 0.00 0.00 41 1008.8
20260505093810 23 0.0 0.0 0.00 0.00 0.00 41 1008.8
20260505093711 23 0.0 0.0 0.00 0.00 0.00 41 1008.8
20260505093636 23 0.0 0.0 0.00 0.00 0.00 41 1008.8
20260505093604 23 0.0 0.0 0.00 0.00 0.00 41 1008.9
20260505093533 23 0.0 0.0 0.00 0.00 0.00 41 1008.9
20260505093501 23 0.0 0.0 0.00 0.00 0.00 41 1008.9
20260505093430 23 0.0 0.0 0.00 0.00 0.00 41 1008.9
20260505093358 23 0.0 0.0 0.00 0.00 0.00 41 1008.9
20260505093326 23 0.0 0.0 0.00 0.00 0.00 41 1008.9
20260505093255 23 0.0 0.0 0.00 0.00 0.00 41 1008.9
20260505093223 23 0.0 0.0 0.00 0.00 0.00 41 1008.9
20260505093152 23 0.0 0.0 0.00 0.00 0.00 41 1009.0
20260505093120 23 0.0 0.0 0.00 0.00 0.00 41 1008.9
20260505093049 23 0.0 0.0 0.00 0.00 0.00 41 1008.9
20260505093017 23 0.0 0.0 0.00 0.00 0.00 41 1008.9
20260505092945 23 0.0 0.0 0.00 0.00 0.00 41 1009.0
20260505092913 23 0.0 0.0 0.00 0.00 0.00 41 1008.9
20260505092842 23 0.0 0.0 0.00 0.00 0.00 42 1009.0
20260505092810 23 0.0 0.0 0.00 0.00 0.00 42 1008.9
20260505092739 23 0.0 0.0 0.00 0.00 0.00 42 1008.9
20260505092707 22 0.0 0.0 0.00 0.00 0.00 42 1009.0
20260505092636 22 0.0 0.0 0.00 0.00 0.00 42 1009.0
20260505092603 22 0.0 0.0 0.00 0.00 0.00 42 1009.0
20260505092532 22 0.0 0.0 0.00 0.00 0.00 42 1009.0
20260505092500 22 0.0 0.0 0.00 0.00 0.00 42 1009.0
20260505092428 22 0.0 0.0 0.00 0.00 0.00 42 1009.0
20260505092357 22 0.0 0.0 0.00 0.00 0.00 42 1009.0
20260505092325 22 0.0 0.0 0.00 0.00 0.00 42 1009.0
20260505092254 22 0.0 0.0 0.00 0.00 0.00 43 1009.0
20260505092222 22 0.0 0.0 0.00 0.00 0.00 43 1009.0
20260505092150 22 0.0 0.0 0.00 0.00 0.00 43 1009.1
20260505092118 22 0.0 0.0 0.00 0.00 0.00 43 1009.0
20260505092047 22 0.0 0.0 0.00 0.00 0.00 43 1009.1
20260505092015 22 0.0 0.0 0.00 0.00 0.00 43 1009.1
20260505091944 22 0.0 0.0 0.00 0.00 0.00 43 1009.1
20260505091912 22 0.0 0.0 0.00 0.00 0.00 43 1009.1
20260505091841 22 0.0 0.0 0.00 0.00 0.00 43 1009.1
20260505091809 22 0.0 0.0 0.00 0.00 0.00 43 1009.1
20260505091738 22 0.0 0.0 0.00 0.00 0.00 43 1009.1
20260505091706 22 0.0 0.0 0.00 0.00 0.00 43 1009.1
20260505091635 22 0.0 0.0 0.00 0.00 0.00 43 1009.1
20260505091603 21 0.0 0.0 0.00 0.00 0.00 43 1009.1
20260505091531 21 0.0 0.0 0.00 0.00 0.00 43 1009.1
20260505091500 21 0.0 0.0 0.00 0.00 0.00 43 1009.1
20260505091429 21 0.0 0.0 0.00 0.00 0.00 43 1009.1
20260505091357 21 0.0 0.0 0.00 0.00 0.00 43 1009.2
20260505091325 21 0.0 0.0 0.00 0.00 0.00 43 1009.1
20260505091254 21 0.0 0.0 0.00 0.00 0.00 43 1009.1
20260505091222 21 0.0 0.0 0.00 0.00 0.00 43 1009.2
20260505091151 21 0.0 0.0 0.00 0.00 0.00 43 1009.2
20260505091119 21 0.0 0.0 0.00 0.00 0.00 43 1009.2
20260505091048 21 0.0 0.0 0.00 0.00 0.00 43 1009.2
20260505091016 21 0.0 0.0 0.00 0.00 0.00 43 1009.2
20260505090945 21 0.0 0.0 0.00 0.00 0.00 43 1009.2
20260505090913 21 0.0 0.0 0.00 0.00 0.00 43 1009.2
20260505090842 21 0.0 0.0 0.00 0.00 0.00 43 1009.2
20260505090810 21 0.0 0.0 0.00 0.00 0.00 43 1009.2
20260505090739 21 0.0 0.0 0.00 0.00 0.00 43 1009.2
20260505090707 21 0.0 0.0 0.00 0.00 0.00 43 1009.2
20260505090636 21 0.0 0.0 0.00 0.00 0.00 43 1009.2
20260505090604 21 0.0 0.0 0.00 0.00 0.00 43 1009.2
20260505090533 21 0.0 0.0 0.00 0.00 0.00 42 1009.2
20260505090501 21 0.0 0.0 0.00 0.00 0.00 43 1009.2
20260505090430 21 0.0 0.0 0.00 0.00 0.00 43 1009.2
20260505090358 21 0.0 0.0 0.00 0.00 0.00 43 1009.2
20260505090327 21 0.0 0.0 0.00 0.00 0.00 43 1009.2
20260505090255 21 0.0 0.0 0.00 0.00 0.00 43 1009.3
20260505090224 21 0.0 0.0 0.00 0.00 0.00 43 1009.3
20260505090152 21 0.0 0.0 0.00 0.00 0.00 43 1009.3
20260505090120 21 0.0 0.0 0.00 0.00 0.00 43 1009.3
20260505090049 21 0.0 0.0 0.00 0.00 0.00 43 1009.2
20260505090017 21 0.0 0.0 0.00 0.00 0.00 43 1009.2
20260505085946 21 0.0 0.0 0.00 0.00 0.00 43 1009.2
20260505085914 21 0.0 0.0 0.00 0.00 0.00 43 1009.2
20260505085843 21 0.0 0.0 0.00 0.00 0.00 43 1009.2
20260505085811 21 0.0 0.0 0.00 0.00 0.00 43 1009.2
20260505085740 21 0.0 0.0 0.00 0.00 0.00 43 1009.2
20260505085708 21 0.0 0.0 0.00 0.00 0.00 43 1009.2
20260505085637 21 0.0 0.0 0.00 0.00 0.00 43 1009.2
20260505085604 21 0.0 0.0 0.00 0.00 0.00 43 1009.2
20260505085533 21 0.0 0.0 0.00 0.00 0.00 43 1009.2
20260505085501 21 0.0 0.0 0.00 0.00 0.00 43 1009.2
20260505085430 21 0.0 0.0 0.00 0.00 0.00 43 1009.2
20260505085358 21 0.0 0.0 0.00 0.00 0.00 43 1009.2
20260505085327 21 0.0 0.0 0.00 0.00 0.00 43 1009.2
20260505085255 21 0.0 0.0 0.00 0.00 0.00 43 1009.1
20260505085224 21 0.0 0.0 0.00 0.00 0.00 43 1009.2
20260505085152 21 0.0 0.0 0.00 0.00 0.00 43 1009.2
20260505085120 21 0.0 0.0 0.00 0.00 0.00 43 1009.2
20260505085048 21 0.0 0.0 0.00 0.00 0.00 43 1009.2
20260505085017 20 0.0 0.0 0.00 0.00 0.00 43 1009.2
20260505084945 21 0.0 0.0 0.00 0.00 0.00 43 1009.2
20260505084914 21 0.0 0.0 0.00 0.00 0.00 43 1009.2
20260505084842 21 0.0 0.0 0.00 0.00 0.00 43 1009.2
20260505084810 21 0.0 0.0 0.00 0.00 0.00 44 1009.2
20260505084739 21 0.0 0.0 0.00 0.00 0.00 44 1009.2
20260505084707 21 0.0 0.0 0.00 0.00 0.00 44 1009.2
20260505084606 21 0.0 0.0 0.00 0.00 0.00 44 1009.2
20260505084533 21 0.0 0.0 0.00 0.00 0.00 44 1009.2
20260505084501 21 0.0 0.0 0.00 0.00 0.00 44 1009.2
20260505084430 21 0.0 0.0 0.00 0.00 0.00 44 1009.2
20260505084358 21 0.0 0.0 0.00 0.00 0.00 44 1009.2
20260505084327 21 0.0 0.0 0.00 0.00 0.00 44 1009.2
20260505084255 21 0.0 0.0 0.00 0.00 0.00 44 1009.3
20260505084223 21 0.0 0.0 0.00 0.00 0.00 44 1009.3
20260505084153 21 0.0 0.0 0.00 0.00 0.00 44 1009.2
20260505084120 21 0.0 0.0 0.00 0.00 0.00 44 1009.3
20260505084049 21 0.0 0.0 0.00 0.00 0.00 44 1009.2
20260505084017 21 0.0 0.0 0.00 0.00 0.00 44 1009.3
20260505083946 21 0.0 0.0 0.00 0.00 0.00 44 1009.3
20260505083914 21 0.0 0.0 0.00 0.00 0.00 44 1009.3
20260505083843 21 0.0 0.0 0.00 0.00 0.00 44 1009.3
20260505083811 21 0.0 0.0 0.00 0.00 0.00 44 1009.3
20260505083740 21 0.0 0.0 0.00 0.00 0.00 44 1009.3
20260505083708 21 0.0 0.0 0.00 0.00 0.00 44 1009.3
20260505083637 21 0.0 0.0 0.00 0.00 0.00 44 1009.2
20260505083605 21 0.0 0.0 0.00 0.00 0.00 44 1009.3
20260505083533 21 0.0 0.0 0.00 0.00 0.00 44 1009.3
20260505083502 21 0.0 0.0 0.00 0.00 0.00 44 1009.3
20260505083430 21 0.0 0.0 0.00 0.00 0.00 43 1009.3
20260505083359 21 0.0 0.0 0.00 0.00 0.00 43 1009.3
20260505083327 21 0.0 0.0 0.00 0.00 0.00 43 1009.3
20260505083256 21 0.0 0.0 0.00 0.00 0.00 43 1009.3
20260505083224 21 0.0 0.0 0.00 0.00 0.00 43 1009.3
20260505083153 21 0.0 0.0 0.00 0.00 0.00 43 1009.3
20260505083121 21 0.0 0.0 0.00 0.00 0.00 44 1009.3
20260505083050 21 0.0 0.0 0.00 0.00 0.00 44 1009.3
20260505083018 21 0.0 0.0 0.00 0.00 0.00 44 1009.3
20260505082946 21 0.0 0.0 0.00 0.00 0.00 44 1009.3
20260505082915 21 0.0 0.0 0.00 0.00 0.00 44 1009.3
20260505082843 21 0.0 0.0 0.00 0.00 0.00 44 1009.3
20260505082812 21 0.0 0.0 0.00 0.00 0.00 45 1009.3
20260505082740 21 0.0 0.0 0.00 0.00 0.00 45 1009.3
20260505082709 21 0.0 0.0 0.00 0.00 0.00 45 1009.3
20260505082637 21 0.0 0.0 0.00 0.00 0.00 45 1009.3
20260505082606 21 0.0 0.0 0.00 0.00 0.00 45 1009.3
20260505082534 21 0.0 0.0 0.00 0.00 0.00 45 1009.3
20260505082503 21 0.0 0.0 0.00 0.00 0.00 45 1009.3
20260505082431 21 0.0 0.0 0.00 0.00 0.00 45 1009.3
20260505082359 21 0.0 0.0 0.00 0.00 0.00 45 1009.3
20260505082327 21 0.0 0.0 0.00 0.00 0.00 45 1009.3
20260505082256 21 0.0 0.0 0.00 0.00 0.00 45 1009.3
20260505082224 21 0.0 0.0 0.00 0.00 0.00 45 1009.3
20260505082153 21 0.0 0.0 0.00 0.00 0.00 45 1009.3
20260505082121 21 0.0 0.0 0.00 0.00 0.00 45 1009.3
20260505082049 21 0.0 0.0 0.00 0.00 0.00 45 1009.3
20260505082017 21 0.0 0.0 0.00 0.00 0.00 45 1009.3
20260505081946 21 0.0 0.0 0.00 0.00 0.00 46 1009.3
20260505081914 21 0.0 0.0 0.00 0.00 0.00 46 1009.3
20260505081843 21 0.0 0.0 0.00 0.00 0.00 46 1009.3
20260505081811 21 0.0 0.0 0.00 0.00 0.00 46 1009.3
20260505081740 21 0.0 0.0 0.00 0.00 0.00 46 1009.3
20260505081708 21 0.0 0.0 0.00 0.00 0.00 46 1009.3
20260505081637 21 0.0 0.0 0.00 0.00 0.00 46 1009.3
20260505081605 21 0.0 0.0 0.00 0.00 0.00 46 1009.3
20260505081534 21 0.0 0.0 0.00 0.00 0.00 46 1009.3
20260505081502 21 0.0 0.0 0.00 0.00 0.00 46 1009.3
20260505081430 21 0.0 0.0 0.00 0.00 0.00 47 1009.3
20260505081359 21 0.0 0.0 0.00 0.00 0.00 47 1009.3
20260505081327 21 0.0 0.0 0.00 0.00 0.00 47 1009.3
20260505081256 21 0.0 0.0 0.00 0.00 0.00 47 1009.3
20260505081224 21 0.0 0.0 0.00 0.00 0.00 47 1009.3
20260505081153 21 0.0 0.0 0.00 0.00 0.00 47 1009.3
20260505081121 21 0.0 0.0 0.00 0.00 0.00 47 1009.4
20260505081049 21 0.0 0.0 0.00 0.00 0.00 47 1009.3
20260505081018 21 0.0 0.0 0.00 0.00 0.00 47 1009.3
20260505080946 21 0.0 0.0 0.00 0.00 0.00 48 1009.4
20260505080915 21 0.0 0.0 0.00 0.00 0.00 48 1009.4
20260505080843 21 0.0 0.0 0.00 0.00 0.00 48 1009.4
20260505080812 21 0.0 0.0 0.00 0.00 0.00 48 1009.4
20260505080740 21 0.0 0.0 0.00 0.00 0.00 48 1009.4
20260505080709 21 0.0 0.0 0.00 0.00 0.00 48 1009.4
20260505080637 21 0.0 0.0 0.00 0.00 0.00 49 1009.4
20260505080606 21 0.0 0.0 0.00 0.00 0.00 49 1009.4
20260505080534 21 0.0 0.0 0.00 0.00 0.00 49 1009.4
20260505080503 20 0.0 0.0 0.00 0.00 0.00 49 1009.4
20260505080431 20 0.0 0.0 0.00 0.00 0.00 49 1009.4
20260505080359 20 0.0 0.0 0.00 0.00 0.00 49 1009.4
20260505080328 21 0.0 0.0 0.00 0.00 0.00 49 1009.4
20260505080256 21 0.0 0.0 0.00 0.00 0.00 49 1009.4
20260505080225 21 0.0 0.0 0.00 0.00 0.00 49 1009.4
20260505080153 21 0.0 0.0 0.00 0.00 0.00 49 1009.4
20260505080122 21 0.0 0.0 0.00 0.00 0.00 50 1009.4
20260505080050 21 0.0 0.0 0.00 0.00 0.00 50 1009.4
20260505080019 21 0.0 0.0 0.00 0.00 0.00 50 1009.4
20260505075947 21 0.0 0.0 0.00 0.00 0.00 51 1009.5
20260505075916 21 0.0 0.0 0.00 0.00 0.00 51 1009.5
20260505075844 21 0.0 0.0 0.00 0.00 0.00 52 1009.5
20260505075813 21 0.0 0.0 0.00 0.00 0.00 51 1009.5
20260505075741 21 0.0 0.0 0.00 0.00 0.00 52 1009.5
20260505075710 21 0.0 0.0 0.00 0.00 0.00 53 1009.5
20260505075638 21 0.0 0.0 0.00 0.00 0.00 53 1009.4
20260505075607 21 0.0 0.0 0.00 0.00 0.00 53 1009.4
20260505075535 20 0.0 0.0 0.00 0.00 0.00 53 1009.5
20260505075504 20 0.0 0.0 0.00 0.00 0.00 53 1009.4
20260505075432 20 0.0 0.0 0.00 0.00 0.00 53 1009.5
20260505075401 20 0.0 0.0 0.00 0.00 0.00 53 1009.5
20260505075329 20 0.0 0.0 0.00 0.00 0.00 53 1009.5
20260505075257 20 0.0 0.0 0.00 0.00 0.00 53 1009.5
20260505075226 20 0.0 0.0 0.00 0.00 0.00 53 1009.5
20260505075155 20 0.0 0.0 0.00 0.00 0.00 54 1009.5
20260505075123 20 0.0 0.0 0.00 0.00 0.00 54 1009.5
20260505075051 20 0.0 0.0 0.00 0.00 0.00 54 1009.5
20260505075020 20 0.0 0.0 0.00 0.00 0.00 54 1009.5
20260505074948 20 0.0 0.0 0.00 0.00 0.00 54 1009.5
20260505074917 20 0.0 0.0 0.00 0.00 0.00 54 1009.5
20260505074845 20 0.0 0.0 0.00 0.00 0.00 54 1009.5
20260505074813 20 0.0 0.0 0.00 0.00 0.00 54 1009.5
20260505074742 20 0.0 0.0 0.00 0.00 0.00 54 1009.5
20260505074710 20 0.0 0.0 0.00 0.00 0.00 55 1009.5
20260505074639 19 0.0 0.0 0.00 0.00 0.00 55 1009.5
20260505074536 19 0.0 0.0 0.00 0.00 0.00 55 1009.5
20260505074433 19 0.0 0.0 0.00 0.00 0.00 55 1009.5
20260505074401 20 0.0 0.0 0.00 0.00 0.00 56 1009.5
20260505074330 19 0.0 0.0 0.00 0.00 0.00 56 1009.5
20260505074258 19 0.0 0.0 0.00 0.00 0.00 56 1009.5
20260505074226 19 0.0 0.0 0.00 0.00 0.00 56 1009.5
20260505074155 19 0.0 0.0 0.00 0.00 0.00 56 1009.5
20260505074123 19 0.0 0.0 0.00 0.00 0.00 56 1009.6
20260505074052 19 0.0 0.0 0.00 0.00 0.00 56 1009.5
20260505074020 19 0.0 0.0 0.00 0.00 0.00 56 1009.5
20260505073947 19 0.0 0.0 0.00 0.00 0.00 56 1009.5
20260505073916 19 0.0 0.0 0.00 0.00 0.00 56 1009.6
20260505073844 19 0.0 0.0 0.00 0.00 0.00 57 1009.6
20260505073813 19 0.0 0.0 0.00 0.00 0.00 57 1009.6
20260505073741 19 0.0 0.0 0.00 0.00 0.00 57 1009.6
20260505073709 18 0.0 0.0 0.00 0.00 0.00 57 1009.6
20260505073638 18 0.0 0.0 0.00 0.00 0.00 57 1009.6
20260505073606 18 0.0 0.0 0.00 0.00 0.00 57 1009.6
20260505073535 18 0.0 0.0 0.00 0.00 0.00 57 1009.6
20260505073503 18 0.0 0.0 0.00 0.00 0.00 57 1009.6
20260505073432 18 0.0 0.0 0.00 0.00 0.00 57 1009.5
20260505073400 18 0.0 0.0 0.00 0.00 0.00 57 1009.6
20260505073329 18 0.0 0.0 0.00 0.00 0.00 57 1009.6
20260505073257 18 0.0 0.0 0.00 0.00 0.00 57 1009.5
20260505073225 18 0.0 0.0 0.00 0.00 0.00 57 1009.5
20260505073154 18 0.0 0.0 0.00 0.00 0.00 57 1009.6
20260505073122 18 0.0 0.0 0.00 0.00 0.00 57 1009.6
20260505073051 18 0.0 0.0 0.00 0.00 0.00 57 1009.6
20260505073019 18 0.0 0.0 0.00 0.00 0.00 57 1009.5
20260505072948 18 0.0 0.0 0.00 0.00 0.00 57 1009.6
20260505072916 18 0.0 0.0 0.00 0.00 0.00 57 1009.5
20260505072845 18 0.0 0.0 0.00 0.00 0.00 57 1009.5
20260505072813 18 0.0 0.0 0.00 0.00 0.00 57 1009.6
20260505072741 18 0.0 0.0 0.00 0.00 0.00 57 1009.6
20260505072709 18 0.0 0.0 0.00 0.00 0.00 57 1009.6
20260505072638 18 0.0 0.0 0.00 0.00 0.00 57 1009.6
20260505072606 18 0.0 0.0 0.00 0.00 0.00 57 1009.6
20260505072535 18 0.0 0.0 0.00 0.00 0.00 57 1009.6
20260505072503 18 0.0 0.0 0.00 0.00 0.00 57 1009.6
20260505072432 18 0.0 0.0 0.00 0.00 0.00 57 1009.6
20260505072400 18 0.0 0.0 0.00 0.00 0.00 57 1009.6
20260505072328 18 0.0 0.0 0.00 0.00 0.00 57 1009.7
20260505072257 18 0.0 0.0 0.00 0.00 0.00 57 1009.6
20260505072225 18 0.0 0.0 0.00 0.00 0.00 57 1009.6
20260505072154 18 0.0 0.0 0.00 0.00 0.00 57 1009.7
20260505072122 18 0.0 0.0 0.00 0.00 0.00 57 1009.6
20260505072051 18 0.0 0.0 0.00 0.00 0.00 58 1009.6
20260505072019 18 0.0 0.0 0.00 0.00 0.00 58 1009.6
20260505071948 18 0.0 0.0 0.00 0.00 0.00 58 1009.7
20260505071916 18 0.0 0.0 0.00 0.00 0.00 58 1009.6
20260505071845 18 0.0 0.0 0.00 0.00 0.00 58 1009.7
20260505071813 18 0.0 0.0 0.00 0.00 0.00 58 1009.7
20260505071742 18 0.0 0.0 0.00 0.00 0.00 58 1009.7
20260505071710 18 0.0 0.0 0.00 0.00 0.00 58 1009.7
20260505071639 18 0.0 0.0 0.00 0.00 0.00 58 1009.7
20260505071607 18 0.0 0.0 0.00 0.00 0.00 58 1009.7
20260505071535 18 0.0 0.0 0.00 0.00 0.00 58 1009.7
20260505071504 18 0.0 0.0 0.00 0.00 0.00 58 1009.7
20260505071432 18 0.0 0.0 0.00 0.00 0.00 59 1009.7
20260505071400 17 0.0 0.0 0.00 0.00 0.00 59 1009.7
20260505071329 17 0.0 0.0 0.00 0.00 0.00 59 1009.7
20260505071257 17 0.0 0.0 0.00 0.00 0.00 59 1009.7
20260505071225 17 0.0 0.0 0.00 0.00 0.00 59 1009.7
20260505071154 17 0.0 0.0 0.00 0.00 0.00 59 1009.7
20260505071122 17 0.0 0.0 0.00 0.00 0.00 59 1009.7
20260505071051 17 0.0 0.0 0.00 0.00 0.00 59 1009.6
20260505071019 17 0.0 0.0 0.00 0.00 0.00 59 1009.7
20260505070948 17 0.0 0.0 0.00 0.00 0.00 59 1009.7
20260505070916 17 0.0 0.0 0.00 0.00 0.00 59 1009.7
20260505070845 17 0.0 0.0 0.00 0.00 0.00 60 1009.7
20260505070813 17 0.0 0.0 0.00 0.00 0.00 60 1009.7
20260505070742 17 0.0 0.0 0.00 0.00 0.00 60 1009.7
20260505070710 17 0.0 0.0 0.00 0.00 0.00 60 1009.7
20260505070639 17 0.0 0.0 0.00 0.00 0.00 60 1009.7
20260505070607 17 0.0 0.0 0.00 0.00 0.00 60 1009.7
20260505070535 17 0.0 0.0 0.00 0.00 0.00 60 1009.7
20260505070504 17 0.0 0.0 0.00 0.00 0.00 60 1009.7
20260505070432 17 0.0 0.0 0.00 0.00 0.00 60 1009.7
20260505070401 17 0.0 0.0 0.00 0.00 0.00 60 1009.7
20260505070328 17 0.0 0.0 0.00 0.00 0.00 60 1009.7
20260505070257 17 0.0 0.0 0.00 0.00 0.00 60 1009.8
20260505070225 17 0.0 0.0 0.00 0.00 0.00 60 1009.7
20260505070154 17 0.0 0.0 0.00 0.00 0.00 60 1009.7
20260505070122 17 0.0 0.0 0.00 0.00 0.00 60 1009.7
20260505070051 17 0.0 0.0 0.00 0.00 0.00 60 1009.8
20260505070018 17 0.0 0.0 0.00 0.00 0.00 60 1009.8
20260505065947 17 0.0 0.0 0.00 0.00 0.00 60 1009.7
20260505065915 17 0.0 0.0 0.00 0.00 0.00 60 1009.8
20260505065844 17 0.0 0.0 0.00 0.00 0.00 61 1009.8
20260505065812 17 0.0 0.0 0.00 0.00 0.00 61 1009.7
20260505065740 17 0.0 0.0 0.00 0.00 0.00 61 1009.8
20260505065709 17 0.0 0.0 0.00 0.00 0.00 61 1009.8
20260505065638 17 0.0 0.0 0.00 0.00 0.00 61 1009.8
20260505065606 17 0.0 0.0 0.00 0.00 0.00 61 1009.8
20260505065535 17 0.0 0.0 0.00 0.00 0.00 61 1009.8
20260505065503 17 0.0 0.0 0.00 0.00 0.00 61 1009.8
20260505065431 17 0.0 0.0 0.00 0.00 0.00 61 1009.8
20260505065400 17 0.0 0.0 0.00 0.00 0.00 61 1009.8
20260505065328 17 0.0 0.0 0.00 0.00 0.00 61 1009.8
20260505065257 17 0.0 0.0 0.00 0.00 0.00 61 1009.8
20260505065225 17 0.0 0.0 0.00 0.00 0.00 61 1009.8
20260505065154 17 0.0 0.0 0.00 0.00 0.00 61 1009.8
20260505065122 17 0.0 0.0 0.00 0.00 0.00 61 1009.8
20260505065051 17 0.0 0.0 0.00 0.00 0.00 61 1009.8
20260505065019 17 0.0 0.0 0.00 0.00 0.00 62 1009.8
20260505064948 17 0.0 0.0 0.00 0.00 0.00 62 1009.8
20260505064916 17 0.0 0.0 0.00 0.00 0.00 62 1009.8
20260505064845 17 0.0 0.0 0.00 0.00 0.00 62 1009.8
20260505064813 17 0.0 0.0 0.00 0.00 0.00 62 1009.8
20260505064742 17 0.0 0.0 0.00 0.00 0.00 62 1009.8
20260505064710 17 0.0 0.0 0.00 0.00 0.00 62 1009.8
20260505064638 17 0.0 0.0 0.00 0.00 0.00 62 1009.8
20260505064607 17 0.0 0.0 0.00 0.00 0.00 62 1009.7
20260505064535 17 0.0 0.0 0.00 0.00 0.00 62 1009.7
20260505064504 17 0.0 0.0 0.00 0.00 0.00 62 1009.8
20260505064432 17 0.0 0.0 0.00 0.00 0.00 62 1009.8
20260505064401 17 0.0 0.0 0.00 0.00 0.00 62 1009.7
20260505064329 17 0.0 0.0 0.00 0.00 0.00 63 1009.7
20260505064258 17 0.0 0.0 0.00 0.00 0.00 63 1009.8
20260505064226 17 0.0 0.0 0.00 0.00 0.00 63 1009.8
20260505064155 17 0.0 0.0 0.00 0.00 0.00 63 1009.8
20260505064122 17 0.0 0.0 0.00 0.00 0.00 63 1009.8
20260505064051 17 0.0 0.0 0.00 0.00 0.00 63 1009.8
20260505064019 17 0.0 0.0 0.00 0.00 0.00 63 1009.8
20260505063948 17 0.0 0.0 0.00 0.00 0.00 63 1009.8
20260505063916 17 0.0 0.0 0.00 0.00 0.00 63 1009.8
20260505063845 17 0.0 0.0 0.00 0.00 0.00 63 1009.8
20260505063813 17 0.0 0.0 0.00 0.00 0.00 64 1009.8
20260505063742 17 0.0 0.0 0.00 0.00 0.00 64 1009.7
20260505063710 17 0.0 0.0 0.00 0.00 0.00 64 1009.8
20260505063639 17 0.0 0.0 0.00 0.00 0.00 64 1009.7
20260505063607 17 0.0 0.0 0.00 0.00 0.00 64 1009.8
20260505063536 17 0.0 0.0 0.00 0.00 0.00 64 1009.7
20260505063504 17 0.0 0.0 0.00 0.00 0.00 64 1009.8
20260505063433 17 0.0 0.0 0.00 0.00 0.00 64 1009.8
20260505063402 17 0.0 0.0 0.00 0.00 0.00 65 1009.8
20260505063330 17 0.0 0.0 0.00 0.00 0.00 65 1009.8
20260505063258 16 0.0 0.0 0.00 0.00 0.00 65 1009.8
20260505063226 16 0.0 0.0 0.00 0.00 0.00 65 1009.8
20260505063155 16 0.0 0.0 0.00 0.00 0.00 65 1009.8
20260505063124 16 0.0 0.0 0.00 0.00 0.00 65 1009.8
20260505063052 16 0.0 0.0 0.00 0.00 0.00 66 1009.8
20260505063020 16 0.0 0.0 0.00 0.00 0.00 66 1009.8
20260505062949 16 0.0 0.0 0.00 0.00 0.00 66 1009.9
20260505062917 16 0.0 0.0 0.00 0.00 0.00 66 1009.9
20260505062846 16 0.0 0.0 0.00 0.00 0.00 66 1009.9
20260505062814 16 0.0 0.0 0.00 0.00 0.00 66 1009.9
20260505062743 16 0.0 0.0 0.00 0.00 0.00 66 1009.9
20260505062711 16 0.0 0.0 0.00 0.00 0.00 66 1009.9
20260505062640 16 0.0 0.0 0.00 0.00 0.00 66 1009.9
20260505062608 16 0.0 0.0 0.00 0.00 0.00 67 1009.9
20260505062537 16 0.0 0.0 0.00 0.00 0.00 67 1009.9
20260505062505 16 0.0 0.0 0.00 0.00 0.00 67 1009.9
20260505062434 16 0.0 0.0 0.00 0.00 0.00 67 1009.9
20260505062402 16 0.0 0.0 0.00 0.00 0.00 67 1009.9
20260505062330 16 0.0 0.0 0.00 0.00 0.00 67 1010.0
20260505062259 16 0.0 0.0 0.00 0.00 0.00 67 1009.9
20260505062227 16 0.0 0.0 0.00 0.00 0.00 67 1009.9
20260505062156 16 0.0 0.0 0.00 0.00 0.00 67 1009.9
20260505062124 16 0.0 0.0 0.00 0.00 0.00 67 1009.9
20260505062053 16 0.0 0.0 0.00 0.00 0.00 67 1009.9
20260505062021 16 0.0 0.0 0.00 0.00 0.00 67 1010.0
20260505061950 16 0.0 0.0 0.00 0.00 0.00 67 1009.9
20260505061918 16 0.0 0.0 0.00 0.00 0.00 67 1009.9
20260505061847 16 0.0 0.0 0.00 0.00 0.00 68 1010.0
20260505061744 16 0.0 0.0 0.00 0.00 0.00 68 1010.0
20260505061712 16 0.0 0.0 0.00 0.00 0.00 68 1010.0
20260505061640 16 0.0 0.0 0.00 0.00 0.00 68 1010.0
20260505061609 16 0.0 0.0 0.00 0.00 0.00 68 1010.0
20260505061537 16 0.0 0.0 0.00 0.00 0.00 68 1010.0
20260505061506 15 0.0 0.0 0.00 0.00 0.00 68 1010.0
20260505061434 15 0.0 0.0 0.00 0.00 0.00 68 1010.0
20260505061403 15 0.0 0.0 0.00 0.00 0.00 68 1010.0
20260505061331 15 0.0 0.0 0.00 0.00 0.00 68 1010.0
20260505061300 15 0.0 0.0 0.00 0.00 0.00 68 1010.0
20260505061228 15 0.0 0.0 0.00 0.00 0.00 68 1010.0
20260505061157 15 0.0 0.0 0.00 0.00 0.00 68 1010.0
20260505061125 15 0.0 0.0 0.00 0.00 0.00 68 1010.0
20260505061054 15 0.0 0.0 0.00 0.00 0.00 68 1010.0
20260505061022 15 0.0 0.0 0.00 0.00 0.00 68 1010.0
20260505060951 15 0.0 0.0 0.00 0.00 0.00 68 1010.0
20260505060919 15 0.0 0.0 0.00 0.00 0.00 68 1010.0
20260505060848 15 0.0 0.0 0.00 0.00 0.00 68 1010.0
20260505060816 15 0.0 0.0 0.00 0.00 0.00 68 1010.0
20260505060745 15 0.0 0.0 0.00 0.00 0.00 68 1010.0
20260505060713 15 0.0 0.0 0.00 0.00 0.00 69 1010.0
20260505060642 15 0.0 0.0 0.00 0.00 0.00 69 1010.0
20260505060610 15 0.0 0.0 0.00 0.00 0.00 69 1010.0
20260505060539 15 0.0 0.0 0.00 0.00 0.00 69 1010.0
20260505060507 15 0.0 0.0 0.00 0.00 0.00 69 1010.0
20260505060436 15 0.0 0.0 0.00 0.00 0.00 69 1010.0
20260505060404 15 0.0 0.0 0.00 0.00 0.00 69 1010.0
20260505060301 15 0.0 0.0 0.00 0.00 0.00 69 1010.0
20260505060230 15 0.0 0.0 0.00 0.00 0.00 69 1010.0
20260505060158 15 0.0 0.0 0.00 0.00 0.00 69 1010.1
20260505060127 15 0.0 0.0 0.00 0.00 0.00 69 1010.1
20260505060053 15 0.0 0.0 0.00 0.00 0.00 69 1010.1
20260505060022 15 0.0 0.0 0.00 0.00 0.00 69 1010.1
20260505055950 15 0.0 0.0 0.00 0.00 0.00 69 1010.1
20260505055919 15 0.0 0.0 0.00 0.00 0.00 69 1010.1
20260505055847 15 0.0 0.0 0.00 0.00 0.00 69 1010.1
20260505055816 15 0.0 0.0 0.00 0.00 0.00 69 1010.1
20260505055744 15 0.0 0.0 0.00 0.00 0.00 69 1010.1
20260505055713 15 0.0 0.0 0.00 0.00 0.00 69 1010.1
20260505055641 15 0.0 0.0 0.00 0.00 0.00 70 1010.1
20260505055610 15 0.0 0.0 0.00 0.00 0.00 70 1010.1
20260505055538 15 0.0 0.0 0.00 0.00 0.00 70 1010.1
20260505055507 15 0.0 0.0 0.00 0.00 0.00 70 1010.1
20260505055434 15 0.0 0.0 0.00 0.00 0.00 70 1010.1
20260505055403 15 0.0 0.0 0.00 0.00 0.00 70 1010.1
20260505055331 15 0.0 0.0 0.00 0.00 0.00 70 1010.1
20260505055300 15 0.0 0.0 0.00 0.00 0.00 70 1010.1
20260505055228 15 0.0 0.0 0.00 0.00 0.00 70 1010.0
20260505055156 15 0.0 0.0 0.00 0.00 0.00 70 1010.0
20260505055125 15 0.0 0.0 0.00 0.00 0.00 70 1010.1
20260505055053 15 0.0 0.0 0.00 0.00 0.00 70 1010.0
20260505055021 15 0.0 0.0 0.00 0.00 0.00 70 1010.0
20260505054918 15 0.0 0.0 0.00 0.00 0.00 70 1010.1
20260505054845 15 0.0 0.0 0.00 0.00 0.00 70 1010.1
20260505054813 15 0.0 0.0 0.00 0.00 0.00 70 1010.1
20260505054742 15 0.0 0.0 0.00 0.00 0.00 70 1010.0
20260505054710 14 0.0 0.0 0.00 0.00 0.00 70 1010.0
20260505054639 14 0.0 0.0 0.00 0.00 0.00 70 1010.1
20260505054607 14 0.0 0.0 0.00 0.00 0.00 71 1010.1
20260505054536 14 0.0 0.0 0.00 0.00 0.00 71 1010.0
20260505054504 14 0.0 0.0 0.00 0.00 0.00 71 1010.0
20260505054433 14 0.0 0.0 0.00 0.00 0.00 71 1010.0
20260505054401 14 0.0 0.0 0.00 0.00 0.00 71 1010.0
20260505054330 14 0.0 0.0 0.00 0.00 0.00 71 1010.1
20260505054258 14 0.0 0.0 0.00 0.00 0.00 71 1010.1
20260505054227 14 0.0 0.0 0.00 0.00 0.00 71 1010.1
20260505054155 14 0.0 0.0 0.00 0.00 0.00 71 1010.1
20260505054124 14 0.0 0.0 0.00 0.00 0.00 71 1010.1
20260505054052 14 0.0 0.0 0.00 0.00 0.00 71 1010.1
20260505054021 14 0.0 0.0 0.00 0.00 0.00 71 1010.1
20260505053948 14 0.0 0.0 0.00 0.00 0.00 71 1010.1
20260505053917 14 0.0 0.0 0.00 0.00 0.00 71 1010.1
20260505053845 14 0.0 0.0 0.00 0.00 0.00 71 1010.1
20260505053814 14 0.0 0.0 0.00 0.00 0.00 71 1010.1
20260505053742 13 0.0 0.0 0.00 0.00 0.00 71 1010.1
20260505053711 13 0.0 0.0 0.00 0.00 0.00 71 1010.1
20260505053639 13 0.0 0.0 0.00 0.00 0.00 71 1010.2
20260505053607 13 0.0 0.0 0.00 0.00 0.00 71 1010.2
20260505053536 13 0.0 0.0 0.00 0.00 0.00 71 1010.1
20260505053504 13 0.0 0.0 0.00 0.00 0.00 71 1010.1
20260505053401 13 0.0 0.0 0.00 0.00 0.00 71 1010.1
20260505053330 13 0.0 0.0 0.00 0.00 0.00 71 1010.1
20260505053258 13 0.0 0.0 0.00 0.00 0.00 71 1010.1
20260505053226 13 0.0 0.0 0.00 0.00 0.00 71 1010.1
20260505053155 13 0.0 0.0 0.00 0.00 0.00 71 1010.1
20260505053124 13 0.0 0.0 0.00 0.00 0.00 71 1010.0
20260505053052 13 0.0 0.0 0.00 0.00 0.00 71 1010.0
20260505053020 13 0.0 0.0 0.00 0.00 0.00 71 1010.0
20260505052949 13 0.0 0.0 0.00 0.00 0.00 71 1010.0
20260505052917 13 0.0 0.0 0.00 0.00 0.00 71 1010.0
20260505052846 13 0.0 0.0 0.00 0.00 0.00 71 1010.0
20260505052814 13 0.0 0.0 0.00 0.00 0.00 71 1010.1
20260505052742 13 0.0 0.0 0.00 0.00 0.00 71 1010.1
20260505052711 13 0.0 0.0 0.00 0.00 0.00 71 1010.1
20260505052640 13 0.0 0.0 0.00 0.00 0.00 72 1010.1
20260505052608 13 0.0 0.0 0.00 0.00 0.00 71 1010.1
20260505052536 13 0.0 0.0 0.00 0.00 0.00 71 1010.1
20260505052505 13 0.0 0.0 0.00 0.00 0.00 71 1010.1
20260505052400 13 0.0 0.0 0.00 0.00 0.00 71 1010.1
20260505052329 13 0.0 0.0 0.00 0.00 0.00 71 1010.1
20260505052257 13 0.0 0.0 0.00 0.00 0.00 71 1010.1
20260505052226 13 0.0 0.0 0.00 0.00 0.00 71 1010.1
20260505052154 13 0.0 0.0 0.00 0.00 0.00 71 1010.1
20260505052123 13 0.0 0.0 0.00 0.00 0.00 71 1010.0
20260505052051 13 0.0 0.0 0.00 0.00 0.00 71 1010.1
20260505052019 13 0.0 0.0 0.00 0.00 0.00 71 1010.1
20260505051948 13 0.0 0.0 0.00 0.00 0.00 71 1010.1
20260505051916 13 0.0 0.0 0.00 0.00 0.00 71 1010.1
20260505051845 12 0.0 0.0 0.00 0.00 0.00 71 1010.1
20260505051813 12 0.0 0.0 0.00 0.00 0.00 71 1010.1
20260505051742 12 0.0 0.0 0.00 0.00 0.00 71 1010.1
20260505051710 12 0.0 0.0 0.00 0.00 0.00 71 1010.1
20260505051639 12 0.0 0.0 0.00 0.00 0.00 71 1010.1
20260505051607 12 0.0 0.0 0.00 0.00 0.00 71 1010.1
20260505051536 12 0.0 0.0 0.00 0.00 0.00 71 1010.1
20260505051504 12 0.0 0.0 0.00 0.00 0.00 71 1010.1
20260505051433 12 0.0 0.0 0.00 0.00 0.00 71 1010.1
20260505051401 12 0.0 0.0 0.00 0.00 0.00 71 1010.1
20260505051330 12 0.0 0.0 0.00 0.00 0.00 71 1010.1
20260505051258 12 0.0 0.0 0.00 0.00 0.00 71 1010.1
20260505051227 12 0.0 0.0 0.00 0.00 0.00 71 1010.0
20260505051155 12 0.0 0.0 0.00 0.00 0.00 71 1010.0
20260505051124 12 0.0 0.0 0.00 0.00 0.00 71 1010.0
20260505051052 12 0.0 0.0 0.00 0.00 0.00 71 1010.0
20260505051021 12 0.0 0.0 0.00 0.00 0.00 71 1010.1
20260505050949 12 0.0 0.0 0.00 0.00 0.00 71 1010.1
20260505050918 12 0.0 0.0 0.00 0.00 0.00 71 1010.1
20260505050846 12 0.0 0.0 0.00 0.00 0.00 71 1010.1
20260505050815 12 0.0 0.0 0.00 0.00 0.00 71 1010.1
20260505050743 12 0.0 0.0 0.00 0.00 0.00 71 1010.1
20260505050712 12 0.0 0.0 0.00 0.00 0.00 71 1010.1
20260505050640 12 0.0 0.0 0.00 0.00 0.00 71 1010.1
20260505050608 12 0.0 0.0 0.00 0.00 0.00 71 1010.1
20260505050537 12 0.0 0.0 0.00 0.00 0.00 71 1010.1
20260505050506 12 0.0 0.0 0.00 0.00 0.00 71 1010.1
20260505050434 12 0.0 0.0 0.00 0.00 0.00 71 1010.1
20260505050403 12 0.0 0.0 0.00 0.00 0.00 71 1010.1
20260505050331 12 0.0 0.0 0.00 0.00 0.00 71 1010.2
20260505050259 12 0.0 0.0 0.00 0.00 0.00 71 1010.1
20260505050228 12 0.0 0.0 0.00 0.00 0.00 71 1010.1
20260505050157 12 0.0 0.0 0.00 0.00 0.00 71 1010.2
20260505050124 12 0.0 0.0 0.00 0.00 0.00 71 1010.1
20260505041746 11 0.0 0.0 0.00 0.00 0.00 69 1010.2
20260505041715 11 0.0 0.0 0.00 0.00 0.00 69 1010.2
20260505041643 11 0.0 0.0 0.00 0.00 0.00 69 1010.2
20260505041612 11 0.0 0.0 0.00 0.00 0.00 69 1010.2
20260505041540 11 0.0 0.0 0.00 0.00 0.00 69 1010.2
20260505041509 11 0.0 0.0 0.00 0.00 0.00 69 1010.2
20260505041437 11 0.0 0.0 0.00 0.00 0.00 69 1010.2
20260505041406 11 0.0 0.0 0.00 0.00 0.00 69 1010.2
20260505041334 11 0.0 0.0 0.00 0.00 0.00 69 1010.2
20260505041303 11 0.0 0.0 0.00 0.00 0.00 69 1010.2
20260505041231 11 0.0 0.0 0.00 0.00 0.00 69 1010.2
20260505041200 11 0.0 0.0 0.00 0.00 0.00 69 1010.2
20260505041128 11 0.0 0.0 0.00 0.00 0.00 69 1010.2
20260505041057 11 0.0 0.0 0.00 0.00 0.00 69 1010.2
20260505041024 11 0.0 0.0 0.00 0.00 0.00 69 1010.1
20260505040953 11 0.0 0.0 0.00 0.00 0.00 69 1010.1
20260505040921 11 0.0 0.0 0.00 0.00 0.00 69 1010.2
20260505040850 11 0.0 0.0 0.00 0.00 0.00 69 1010.1
20260505040818 11 0.0 0.0 0.00 0.00 0.00 69 1010.2
20260505040747 11 0.0 0.0 0.00 0.00 0.00 69 1010.2
20260505040715 11 0.0 0.0 0.00 0.00 0.00 69 1010.2
20260505040644 11 0.0 0.0 0.00 0.00 0.00 69 1010.2
20260505040612 11 0.0 0.0 0.00 0.00 0.00 69 1010.2
20260505040541 11 0.0 0.0 0.00 0.00 0.00 69 1010.2
20260505040509 11 0.0 0.0 0.00 0.00 0.00 69 1010.2
20260505040437 11 0.0 0.0 0.00 0.00 0.00 69 1010.3
20260505040406 11 0.0 0.0 0.00 0.00 0.00 69 1010.2
20260505040335 11 0.0 0.0 0.00 0.00 0.00 69 1010.2
20260505040303 11 0.0 0.0 0.00 0.00 0.00 69 1010.2
20260505040232 11 0.0 0.0 0.00 0.00 0.00 69 1010.2
20260505040200 11 0.0 0.0 0.00 0.00 0.00 69 1010.2
20260505040129 11 0.0 0.0 0.00 0.00 0.00 69 1010.2
20260505040057 11 0.0 0.0 0.00 0.00 0.00 69 1010.2
20260505040026 11 0.0 0.0 0.00 0.00 0.00 69 1010.2
20260505035954 11 0.0 0.0 0.00 0.00 0.00 69 1010.2
20260505035923 11 0.0 0.0 0.00 0.00 0.00 69 1010.2
20260505035851 11 0.0 0.0 0.00 0.00 0.00 69 1010.2
20260505035820 11 0.0 0.0 0.00 0.00 0.00 69 1010.2
20260505035748 11 0.0 0.0 0.00 0.00 0.00 69 1010.2
20260505035716 11 0.0 0.0 0.00 0.00 0.00 69 1010.2
20260505035645 11 0.0 0.0 0.00 0.00 0.00 69 1010.2
20260505035613 11 0.0 0.0 0.00 0.00 0.00 69 1010.2
20260505035541 11 0.0 0.0 0.00 0.00 0.00 69 1010.2
20260505035510 11 0.0 0.0 0.00 0.00 0.00 69 1010.2
20260505035438 11 0.0 0.0 0.00 0.00 0.00 69 1010.3
20260505035407 11 0.0 0.0 0.00 0.00 0.00 68 1010.2
20260505035335 11 0.0 0.0 0.00 0.00 0.00 68 1010.2
20260505035304 11 0.0 0.0 0.00 0.00 0.00 68 1010.2
20260505035232 11 0.0 0.0 0.00 0.00 0.00 68 1010.2
20260505035200 11 0.0 0.0 0.00 0.00 0.00 68 1010.2
20260505035129 11 0.0 0.0 0.00 0.00 0.00 68 1010.2
20260505035057 11 0.0 0.0 0.00 0.00 0.00 68 1010.2
20260505035025 11 0.0 0.0 0.00 0.00 0.00 68 1010.2
20260505034954 11 0.0 0.0 0.00 0.00 0.00 68 1010.2
20260505034922 11 0.0 0.0 0.00 0.00 0.00 68 1010.2
20260505034851 11 0.0 0.0 0.00 0.00 0.00 68 1010.3
20260505034819 11 0.0 0.0 0.00 0.00 0.00 68 1010.2
20260505034748 11 0.0 0.0 0.00 0.00 0.00 68 1010.3
20260505034716 11 0.0 0.0 0.00 0.00 0.00 68 1010.3
20260505034645 11 0.0 0.0 0.00 0.00 0.00 68 1010.3
20260505034613 11 0.0 0.0 0.00 0.00 0.00 68 1010.3
20260505034542 11 0.0 0.0 0.00 0.00 0.00 68 1010.3
20260505034510 11 0.0 0.0 0.00 0.00 0.00 68 1010.3
20260505034439 11 0.0 0.0 0.00 0.00 0.00 68 1010.3
20260505034407 11 0.0 0.0 0.00 0.00 0.00 68 1010.3
20260505034336 11 0.0 0.0 0.00 0.00 0.00 68 1010.2
20260505034304 11 0.0 0.0 0.00 0.00 0.00 68 1010.3
20260505034233 11 0.0 0.0 0.00 0.00 0.00 68 1010.3
20260505034201 11 0.0 0.0 0.00 0.00 0.00 68 1010.2
20260505034130 11 0.0 0.0 0.00 0.00 0.00 68 1010.2
20260505034058 11 0.0 0.0 0.00 0.00 0.00 68 1010.2
20260505034027 11 0.0 0.0 0.00 0.00 0.00 68 1010.2
20260505033955 11 0.0 0.0 0.00 0.00 0.00 68 1010.2
20260505033923 11 0.0 0.0 0.00 0.00 0.00 68 1010.2
20260505033852 11 0.0 0.0 0.00 0.00 0.00 68 1010.2
20260505033820 11 0.0 0.0 0.00 0.00 0.00 68 1010.2
20260505033749 11 0.0 0.0 0.00 0.00 0.00 68 1010.2
20260505033717 11 0.0 0.0 0.00 0.00 0.00 68 1010.2
20260505033646 11 0.0 0.0 0.00 0.00 0.00 68 1010.2
20260505033614 11 0.0 0.0 0.00 0.00 0.00 68 1010.2
20260505033543 11 0.0 0.0 0.00 0.00 0.00 68 1010.2
20260505033511 11 0.0 0.0 0.00 0.00 0.00 68 1010.2
20260505033440 11 0.0 0.0 0.00 0.00 0.00 67 1010.3
20260505033408 11 0.0 0.0 0.00 0.00 0.00 67 1010.2
20260505033336 11 0.0 0.0 0.00 0.00 0.00 67 1010.2
20260505033305 11 0.0 0.0 0.00 0.00 0.00 67 1010.3
20260505033234 11 0.0 0.0 0.00 0.00 0.00 67 1010.2
20260505033202 11 0.0 0.0 0.00 0.00 0.00 67 1010.2
20260505033130 11 0.0 0.0 0.00 0.00 0.00 67 1010.2
20260505033059 11 0.0 0.0 0.00 0.00 0.00 67 1010.2
20260505033027 11 0.0 0.0 0.00 0.00 0.00 67 1010.2
20260505032956 11 0.0 0.0 0.00 0.00 0.00 67 1010.2
20260505032924 11 0.0 0.0 0.00 0.00 0.00 67 1010.3
20260505032853 11 0.0 0.0 0.00 0.00 0.00 67 1010.2
20260505032821 11 0.0 0.0 0.00 0.00 0.00 67 1010.3
20260505032750 11 0.0 0.0 0.00 0.00 0.00 67 1010.3
20260505032718 11 0.0 0.0 0.00 0.00 0.00 67 1010.3
20260505032647 11 0.0 0.0 0.00 0.00 0.00 67 1010.3
20260505032615 11 0.0 0.0 0.00 0.00 0.00 67 1010.3
20260505032544 11 0.0 0.0 0.00 0.00 0.00 67 1010.3
20260505032512 11 0.0 0.0 0.00 0.00 0.00 67 1010.3
20260505032441 11 0.0 0.0 0.00 0.00 0.00 66 1010.3
20260505032409 11 0.0 0.0 0.00 0.00 0.00 66 1010.3
20260505032338 11 0.0 0.0 0.00 0.00 0.00 66 1010.3
20260505032306 11 0.0 0.0 0.00 0.00 0.00 66 1010.4
20260505032235 11 0.0 0.0 0.00 0.00 0.00 66 1010.4
20260505032203 11 0.0 0.0 0.00 0.00 0.00 66 1010.4
20260505032132 11 0.0 0.0 0.00 0.00 0.00 66 1010.5
20260505032100 11 0.0 0.0 0.00 0.00 0.00 66 1010.4
20260505032029 12 0.0 0.0 0.00 0.00 0.00 66 1010.4
20260505031957 12 0.0 0.0 0.00 0.00 0.00 66 1010.4
20260505031926 12 0.0 0.0 0.00 0.00 0.00 66 1010.4
20260505031854 12 0.0 0.0 0.00 0.00 0.00 66 1010.4
20260505031823 12 0.0 0.0 0.00 0.00 0.00 66 1010.4
20260505031751 12 0.0 0.0 0.00 0.00 0.00 66 1010.4
20260505031720 12 0.0 0.0 0.00 0.00 0.00 66 1010.4
20260505031648 12 0.0 0.0 0.00 0.00 0.00 66 1010.4
20260505031617 12 0.0 0.0 0.00 0.00 0.00 66 1010.4
20260505031545 12 0.0 0.0 0.00 0.00 0.00 66 1010.5
20260505031514 12 0.0 0.0 0.00 0.00 0.00 66 1010.5
20260505031442 12 0.0 0.0 0.00 0.00 0.00 66 1010.5
20260505031411 12 0.0 0.0 0.00 0.00 0.00 66 1010.5
20260505031339 12 0.0 0.0 0.00 0.00 0.00 66 1010.5
20260505031308 12 0.0 0.0 0.00 0.00 0.00 66 1010.5
20260505031236 12 0.0 0.0 0.00 0.00 0.00 66 1010.5
20260505031205 12 0.0 0.0 0.00 0.00 0.00 66 1010.5
20260505031133 12 0.0 0.0 0.00 0.00 0.00 66 1010.5
20260505031102 12 0.0 0.0 0.00 0.00 0.00 66 1010.5
20260505031030 12 0.0 0.0 0.00 0.00 0.00 66 1010.5
20260505030959 12 0.0 0.0 0.00 0.00 0.00 65 1010.5
20260505030856 12 0.0 0.0 0.00 0.00 0.00 65 1010.5
20260505030824 12 0.0 0.0 0.00 0.00 0.00 65 1010.5
20260505030753 12 0.0 0.0 0.00 0.00 0.00 65 1010.5
20260505030721 12 0.0 0.0 0.00 0.00 0.00 65 1010.5
20260505030650 12 0.0 0.0 0.00 0.00 0.00 65 1010.5
20260505030618 12 0.0 0.0 0.00 0.00 0.00 65 1010.5
20260505030547 12 0.0 0.0 0.00 0.00 0.00 65 1010.5
20260505030444 12 0.0 0.0 0.00 0.00 0.00 65 1010.5
20260505030412 12 0.0 0.0 0.00 0.00 0.00 65 1010.5
20260505030341 12 0.0 0.0 0.00 0.00 0.00 65 1010.5
20260505030310 12 0.0 0.0 0.00 0.00 0.00 65 1010.5
20260505030238 12 0.0 0.0 0.00 0.00 0.00 65 1010.6
20260505030206 12 0.0 0.0 0.00 0.00 0.00 65 1010.6
20260505030134 12 0.0 0.0 0.00 0.00 0.00 65 1010.5
20260505030103 12 0.0 0.0 0.00 0.00 0.00 65 1010.6
20260505030032 12 0.0 0.0 0.00 0.00 0.00 65 1010.6
20260505030000 12 0.0 0.0 0.00 0.00 0.00 65 1010.6
20260505025928 12 0.0 0.0 0.00 0.00 0.00 65 1010.6
20260505025857 12 0.0 0.0 0.00 0.00 0.00 65 1010.6
20260505025825 12 0.0 0.0 0.00 0.00 0.00 65 1010.6
20260505025754 12 0.0 0.0 0.00 0.00 0.00 65 1010.6
20260505025722 12 0.0 0.0 0.00 0.00 0.00 65 1010.6
20260505025650 12 0.0 0.0 0.00 0.00 0.00 65 1010.6
20260505025618 12 0.0 0.0 0.00 0.00 0.00 64 1010.6
20260505025547 12 0.0 0.0 0.00 0.00 0.00 64 1010.6
20260505025515 12 0.0 0.0 0.00 0.00 0.00 64 1010.6
20260505025444 12 0.0 0.0 0.00 0.00 0.00 64 1010.6
20260505025412 12 0.0 0.0 0.00 0.00 0.00 64 1010.6
20260505025341 12 0.0 0.0 0.00 0.00 0.00 64 1010.6
20260505025309 12 0.0 0.0 0.00 0.00 0.00 64 1010.6
20260505025238 12 0.0 0.0 0.00 0.00 0.00 64 1010.6
20260505025206 12 0.0 0.0 0.00 0.00 0.00 64 1010.6
20260505025135 12 0.0 0.0 0.00 0.00 0.00 64 1010.6
20260505025104 12 0.0 0.0 0.00 0.00 0.00 64 1010.6
20260505025032 12 0.0 0.0 0.00 0.00 0.00 64 1010.6
20260505025000 12 0.0 0.0 0.00 0.00 0.00 64 1010.6
20260505024928 12 0.0 0.0 0.00 0.00 0.00 64 1010.6
20260505024826 12 0.0 0.0 0.00 0.00 0.00 64 1010.6
20260505024754 12 0.0 0.0 0.00 0.00 0.00 64 1010.6
20260505024723 12 0.0 0.0 0.00 0.00 0.00 64 1010.6
20260505024651 12 0.0 0.0 0.00 0.00 0.00 64 1010.6
20260505024620 12 0.0 0.0 0.00 0.00 0.00 64 1010.6
20260505024548 12 0.0 0.0 0.00 0.00 0.00 64 1010.6
20260505024517 12 0.0 0.0 0.00 0.00 0.00 64 1010.6
20260505024445 12 0.0 0.0 0.00 0.00 0.00 64 1010.6
20260505024342 12 0.0 0.0 0.00 0.00 0.00 64 1010.6
20260505024311 12 0.0 0.0 0.00 0.00 0.00 64 1010.6
20260505024239 12 0.0 0.0 0.00 0.00 0.00 64 1010.6
20260505024208 12 0.0 0.0 0.00 0.00 0.00 64 1010.6
20260505024136 12 0.0 0.0 0.00 0.00 0.00 64 1010.6
20260505024104 13 0.0 0.0 0.00 0.00 0.00 64 1010.6
20260505024033 13 0.0 0.0 0.00 0.00 0.00 63 1010.6
20260505024001 13 0.0 0.0 0.00 0.00 0.00 63 1010.6
20260505023930 13 0.0 0.0 0.00 0.00 0.00 63 1010.6
20260505023858 13 0.0 0.0 0.00 0.00 0.00 63 1010.6
20260505023826 13 0.0 0.0 0.00 0.00 0.00 63 1010.6
20260505023754 13 0.0 0.0 0.00 0.00 0.00 63 1010.6
20260505023723 13 0.0 0.0 0.00 0.00 0.00 63 1010.7
20260505023651 13 0.0 0.0 0.00 0.00 0.00 63 1010.6
20260505023619 13 0.0 0.0 0.00 0.00 0.00 63 1010.7
20260505023548 13 0.0 0.0 0.00 0.00 0.00 63 1010.6
20260505023516 13 0.0 0.0 0.00 0.00 0.00 63 1010.7
20260505023445 13 0.0 0.0 0.00 0.00 0.00 63 1010.7
20260505023414 13 0.0 0.0 0.00 0.00 0.00 63 1010.6
20260505023342 13 0.0 0.0 0.00 0.00 0.00 63 1010.7
20260505023310 13 0.0 0.0 0.00 0.00 0.00 63 1010.7
20260505023239 13 0.0 0.0 0.00 0.00 0.00 63 1010.7
20260505023207 13 0.0 0.0 0.00 0.00 0.00 63 1010.7
20260505023136 13 0.0 0.0 0.00 0.00 0.00 63 1010.8
20260505023104 13 0.0 0.0 0.00 0.00 0.00 63 1010.8
20260505023033 13 0.0 0.0 0.00 0.00 0.00 63 1010.8
20260505023001 13 0.0 0.0 0.00 0.00 0.00 63 1010.8
20260505022930 13 0.0 0.0 0.00 0.00 0.00 63 1010.8
20260505022858 13 0.0 0.0 0.00 0.00 0.00 63 1010.7
20260505022827 13 0.0 0.0 0.00 0.00 0.00 63 1010.7
20260505022755 13 0.0 0.0 0.00 0.00 0.00 63 1010.7
20260505022724 13 0.0 0.0 0.00 0.00 0.00 63 1010.7
20260505022621 13 0.0 0.0 0.00 0.00 0.00 63 1010.8
20260505022549 13 0.0 0.0 0.00 0.00 0.00 63 1010.8
20260505022518 13 0.0 0.0 0.00 0.00 0.00 63 1010.7
20260505022446 13 0.0 0.0 0.00 0.00 0.00 63 1010.7
20260505022415 13 0.0 0.0 0.00 0.00 0.00 63 1010.7
20260505022343 13 0.0 0.0 0.00 0.00 0.00 63 1010.7
20260505022312 13 0.0 0.0 0.00 0.00 0.00 63 1010.7
20260505022240 13 0.0 0.0 0.00 0.00 0.00 63 1010.7
20260505022209 13 0.0 0.0 0.00 0.00 0.00 63 1010.7
20260505022137 13 0.0 0.0 0.00 0.00 0.00 63 1010.7
20260505022106 13 0.0 0.0 0.00 0.00 0.00 63 1010.7
20260505022034 13 0.0 0.0 0.00 0.00 0.00 63 1010.7
20260505022003 13 0.0 0.0 0.00 0.00 0.00 63 1010.7
20260505021931 13 0.0 0.0 0.00 0.00 0.00 63 1010.7
20260505021900 13 0.0 0.0 0.00 0.00 0.00 63 1010.7
20260505021828 13 0.0 0.0 0.00 0.00 0.00 63 1010.7
20260505021757 13 0.0 0.0 0.00 0.00 0.00 63 1010.7
20260505021725 13 0.0 0.0 0.00 0.00 0.00 63 1010.7
20260505021654 13 0.0 0.0 0.00 0.00 0.00 63 1010.8
20260505021622 13 0.0 0.0 0.00 0.00 0.00 63 1010.8
20260505021551 13 0.0 0.0 0.00 0.00 0.00 63 1010.8
20260505021519 13 0.0 0.0 0.00 0.00 0.00 63 1010.8
20260505021448 13 0.0 0.0 0.00 0.00 0.00 63 1010.8
20260505021416 13 0.0 0.0 0.00 0.00 0.00 63 1010.8
20260505021345 13 0.0 0.0 0.00 0.00 0.00 63 1010.8
20260505021313 13 0.0 0.0 0.00 0.00 0.00 62 1010.9
20260505021241 13 0.0 0.0 0.00 0.00 0.00 62 1010.9
20260505021210 13 0.0 0.0 0.00 0.00 0.00 62 1010.9
20260505021138 13 0.0 0.0 0.00 0.00 0.00 62 1010.9
20260505021107 13 0.0 0.0 0.00 0.00 0.00 62 1010.9
20260505021035 13 0.0 0.0 0.00 0.00 0.00 62 1010.9
20260505021003 13 0.0 0.0 0.00 0.00 0.00 62 1010.9
20260505020932 13 0.0 0.0 0.00 0.00 0.00 62 1010.8
20260505020900 13 0.0 0.0 0.00 0.00 0.00 62 1010.9
20260505020829 13 0.0 0.0 0.00 0.00 0.00 62 1010.9
20260505020757 13 0.0 0.0 0.00 0.00 0.00 62 1010.9
20260505020726 13 0.0 0.0 0.00 0.00 0.00 62 1010.9
20260505020654 13 0.0 0.0 0.00 0.00 0.00 62 1010.9
20260505020622 13 0.0 0.0 0.00 0.00 0.00 62 1010.9
20260505020551 13 0.0 0.0 0.00 0.00 0.00 62 1010.9
20260505020519 13 0.0 0.0 0.00 0.00 0.00 62 1010.9
20260505020448 13 0.0 0.0 0.00 0.00 0.00 62 1010.9
20260505020416 13 0.0 0.0 0.00 0.00 0.00 62 1010.9
20260505020314 13 0.0 0.0 0.00 0.00 0.00 62 1010.9
20260505020241 13 0.0 0.0 0.00 0.00 0.00 62 1010.9
20260505020210 13 0.0 0.0 0.00 0.00 0.00 62 1010.9
20260505020138 13 0.0 0.0 0.00 0.00 0.00 62 1010.9
20260505020107 13 0.0 0.0 0.00 0.00 0.00 62 1010.9
20260505020035 13 0.0 0.0 0.00 0.00 0.00 62 1011.0
20260505020004 13 0.0 0.0 0.00 0.00 0.00 62 1010.9
20260505015932 13 0.0 0.0 0.00 0.00 0.00 62 1011.0
20260505015901 13 0.0 0.0 0.00 0.00 0.00 62 1010.9
20260505015829 13 0.0 0.0 0.00 0.00 0.00 62 1011.0
20260505015758 13 0.0 0.0 0.00 0.00 0.00 62 1011.0
20260505015726 13 0.0 0.0 0.00 0.00 0.00 62 1010.9
20260505015655 14 0.0 0.0 0.00 0.00 0.00 62 1011.0
20260505015623 14 0.0 0.0 0.00 0.00 0.00 62 1010.9
20260505015552 14 0.0 0.0 0.00 0.00 0.00 62 1010.9
20260505015520 14 0.0 0.0 0.00 0.00 0.00 62 1010.9
20260505015449 14 0.0 0.0 0.00 0.00 0.00 62 1010.9
20260505015417 14 0.0 0.0 0.00 0.00 0.00 62 1010.9
20260505015346 14 0.0 0.0 0.00 0.00 0.00 62 1010.9
20260505015314 14 0.0 0.0 0.00 0.00 0.00 62 1010.9
20260505015242 14 0.0 0.0 0.00 0.00 0.00 62 1010.9
20260505015210 14 0.0 0.0 0.00 0.00 0.00 62 1010.9
20260505015138 14 0.0 0.0 0.00 0.00 0.00 62 1010.9
20260505015107 14 0.0 0.0 0.00 0.00 0.00 62 1010.9
20260505015036 14 0.0 0.0 0.00 0.00 0.00 62 1010.9
20260505015004 14 0.0 0.0 0.00 0.00 0.00 62 1010.9
20260505014933 14 0.0 0.0 0.00 0.00 0.00 62 1010.9
20260505014901 14 0.0 0.0 0.00 0.00 0.00 62 1010.9
20260505014830 14 0.0 0.0 0.00 0.00 0.00 62 1010.9
20260505014758 14 0.0 0.0 0.00 0.00 0.00 62 1010.9
20260505014727 14 0.0 0.0 0.00 0.00 0.00 62 1010.9
20260505014655 14 0.0 0.0 0.00 0.00 0.00 62 1010.9
20260505014624 14 0.0 0.0 0.00 0.00 0.00 62 1010.9
20260505014553 14 0.0 0.0 0.00 0.00 0.00 62 1011.0
20260505014521 14 0.0 0.0 0.00 0.00 0.00 62 1011.0
20260505014449 14 0.0 0.0 0.00 0.00 0.00 62 1010.9
20260505014418 14 0.0 0.0 0.00 0.00 0.00 62 1010.9
20260505014346 14 0.0 0.0 0.00 0.00 0.00 62 1011.0
20260505014315 14 0.0 0.0 0.00 0.00 0.00 62 1011.0
20260505014243 14 0.0 0.0 0.00 0.00 0.00 62 1010.9
20260505014211 14 0.0 0.0 0.00 0.00 0.00 62 1010.9
20260505014139 14 0.0 0.0 0.00 0.00 0.00 62 1011.0
20260505014108 14 0.0 0.0 0.00 0.00 0.00 61 1011.0
20260505014036 14 0.0 0.0 0.00 0.00 0.00 61 1010.9
20260505014004 14 0.0 0.0 0.00 0.00 0.00 61 1011.0
20260505013933 14 0.0 0.0 0.00 0.00 0.00 61 1010.9
20260505013901 14 0.0 0.0 0.00 0.00 0.00 61 1010.9
20260505013830 14 0.0 0.0 0.00 0.00 0.00 61 1010.9
20260505013758 14 0.0 0.0 0.00 0.00 0.00 61 1010.9
20260505013727 14 0.0 0.0 0.00 0.00 0.00 61 1010.9
20260505013655 14 0.0 0.0 0.00 0.00 0.00 62 1010.9
20260505013624 14 0.0 0.0 0.00 0.00 0.00 61 1010.9
20260505013552 14 0.0 0.0 0.00 0.00 0.00 61 1010.9
20260505013521 14 0.0 0.0 0.00 0.00 0.00 62 1010.9
20260505013449 14 0.0 0.0 0.00 0.00 0.00 62 1011.0
20260505013417 14 0.0 0.0 0.00 0.00 0.00 61 1010.9
20260505013346 14 0.0 0.0 0.00 0.00 0.00 61 1011.0
20260505013315 14 0.0 0.0 0.00 0.00 0.00 61 1011.0
20260505013243 14 0.0 0.0 0.00 0.00 0.00 61 1010.9
20260505013139 14 0.0 0.0 0.00 0.00 0.00 61 1011.0
20260505013108 14 0.0 0.0 0.00 0.00 0.00 61 1011.0
20260505013036 14 0.0 0.0 0.00 0.00 0.00 61 1011.0
20260505013004 14 0.0 0.0 0.00 0.00 0.00 61 1011.0
20260505012933 14 0.0 0.0 0.00 0.00 0.00 61 1011.0
20260505012901 14 0.0 0.0 0.00 0.00 0.00 61 1011.0
20260505012830 14 0.0 0.0 0.00 0.00 0.00 61 1011.0
20260505012758 14 0.0 0.0 0.00 0.00 0.00 61 1011.0
20260505012727 15 0.0 0.0 0.00 0.00 0.00 61 1011.0
20260505012655 14 0.0 0.0 0.00 0.00 0.00 61 1011.0
20260505012624 15 0.0 0.0 0.00 0.00 0.00 61 1011.0
20260505012552 14 0.0 0.0 0.00 0.00 0.00 61 1011.0
20260505012521 15 0.0 0.0 0.00 0.00 0.00 61 1011.0
20260505012449 15 0.0 0.0 0.00 0.00 0.00 61 1011.0
20260505012418 14 0.0 0.0 0.00 0.00 0.00 61 1011.0
20260505012346 14 0.0 0.0 0.00 0.00 0.00 61 1011.0
20260505012315 14 0.0 0.0 0.00 0.00 0.00 61 1011.1
20260505012243 14 0.0 0.0 0.00 0.00 0.00 61 1011.0
20260505012212 14 0.0 0.0 0.00 0.00 0.00 61 1011.1
20260505012139 14 0.0 0.0 0.00 0.00 0.00 61 1011.0
20260505012108 14 0.0 0.0 0.00 0.00 0.00 61 1011.0
20260505012036 14 0.0 0.0 0.00 0.00 0.00 61 1011.0
20260505012005 14 0.0 0.0 0.00 0.00 0.00 61 1011.1
20260505011933 14 0.0 0.0 0.00 0.00 0.00 61 1011.0
20260505011902 14 0.0 0.0 0.00 0.00 0.00 61 1011.1
20260505011830 14 0.0 0.0 0.00 0.00 0.00 61 1011.1
20260505011759 14 0.0 0.0 0.00 0.00 0.00 61 1011.1
20260505011727 14 0.0 0.0 0.00 0.00 0.00 61 1011.1
20260505011656 14 0.0 0.0 0.00 0.00 0.00 61 1011.1
20260505011624 14 0.0 0.0 0.00 0.00 0.00 61 1011.1
20260505011552 14 0.0 0.0 0.00 0.00 0.00 61 1011.1
20260505011521 14 0.0 0.0 0.00 0.00 0.00 61 1011.1
20260505011449 14 0.0 0.0 0.00 0.00 0.00 61 1011.1
20260505011418 14 0.0 0.0 0.00 0.00 0.00 61 1011.1
20260505011346 14 0.0 0.0 0.00 0.00 0.00 61 1011.1
20260505011314 14 0.0 0.0 0.00 0.00 0.00 60 1011.1
20260505011243 14 0.0 0.0 0.00 0.00 0.00 60 1011.1
20260505011211 14 0.0 0.0 0.00 0.00 0.00 60 1011.1
20260505011139 14 0.0 0.0 0.00 0.00 0.00 60 1011.1
20260505011108 14 0.0 0.0 0.00 0.00 0.00 60 1011.1
20260505011036 14 0.0 0.0 0.00 0.00 0.00 60 1011.1
20260505011005 14 0.0 0.0 0.00 0.00 0.00 60 1011.1
20260505010933 14 0.0 0.0 0.00 0.00 0.00 60 1011.1
20260505010902 14 0.0 0.0 0.00 0.00 0.00 60 1011.1
20260505010830 14 0.0 0.0 0.00 0.00 0.00 60 1011.1
20260505010759 14 0.0 0.0 0.00 0.00 0.00 60 1011.1
20260505010727 14 0.0 0.0 0.00 0.00 0.00 60 1011.1
20260505010656 14 0.0 0.0 0.00 0.00 0.00 60 1011.1
20260505010624 14 0.0 0.0 0.00 0.00 0.00 60 1011.1
20260505010552 14 0.0 0.0 0.00 0.00 0.00 60 1011.1
20260505010521 14 0.0 0.0 0.00 0.00 0.00 60 1011.1
20260505010449 14 0.0 0.0 0.00 0.00 0.00 60 1011.1
20260505010418 14 0.0 0.0 0.00 0.00 0.00 60 1011.1
20260505010346 14 0.0 0.0 0.00 0.00 0.00 60 1011.1
20260505010314 14 0.0 0.0 0.00 0.00 0.00 60 1011.1
20260505010243 14 0.0 0.0 0.00 0.00 0.00 60 1011.2
20260505010211 14 0.0 0.0 0.00 0.00 0.00 60 1011.1
20260505010140 14 0.0 0.0 0.00 0.00 0.00 60 1011.1
20260505010108 14 0.0 0.0 0.00 0.00 0.00 60 1011.1
20260505010037 14 0.0 0.0 0.00 0.00 0.00 60 1011.2
20260505010005 14 0.0 0.0 0.00 0.00 0.00 60 1011.1
20260505005934 14 0.0 0.0 0.00 0.00 0.00 60 1011.2
20260505005902 14 0.0 0.0 0.00 0.00 0.00 60 1011.2
20260505005831 14 0.0 0.0 0.00 0.00 0.00 60 1011.2
20260505005800 14 0.0 0.0 0.00 0.00 0.00 60 1011.2
20260505005728 14 0.0 0.0 0.00 0.00 0.00 60 1011.2
20260505005656 14 0.0 0.0 0.00 0.00 0.00 60 1011.1
20260505005625 14 0.0 0.0 0.00 0.00 0.00 60 1011.1
20260505005553 14 0.0 0.0 0.00 0.00 0.00 60 1011.1
20260505005521 14 0.0 0.0 0.00 0.00 0.00 60 1011.1
20260505005450 14 0.0 0.0 0.00 0.00 0.00 60 1011.2
20260505005418 14 0.0 0.0 0.00 0.00 0.00 60 1011.1
20260505005316 14 0.0 0.0 0.00 0.00 0.00 60 1011.1
20260505005244 14 0.0 0.0 0.00 0.00 0.00 60 1011.1
20260505005213 14 0.0 0.0 0.00 0.00 0.00 60 1011.1
20260505005140 15 0.0 0.0 0.00 0.00 0.00 60 1011.1
20260505005108 15 0.0 0.0 0.00 0.00 0.00 60 1011.1
20260505005037 15 0.0 0.0 0.00 0.00 0.00 60 1011.1
20260505004934 15 0.0 0.0 0.00 0.00 0.00 60 1011.1
20260505004902 15 0.0 0.0 0.00 0.00 0.00 60 1011.1
20260505004831 15 0.0 0.0 0.00 0.00 0.00 60 1011.1
20260505004759 15 0.0 0.0 0.00 0.00 0.00 60 1011.1
20260505004727 15 0.0 0.0 0.00 0.00 0.00 60 1011.1
20260505004656 15 0.0 0.0 0.00 0.00 0.00 60 1011.2
20260505004624 15 0.0 0.0 0.00 0.00 0.00 60 1011.2
20260505004553 15 0.0 0.0 0.00 0.00 0.00 60 1011.2
20260505004521 15 0.0 0.0 0.00 0.00 0.00 60 1011.2
20260505004450 15 0.0 0.0 0.00 0.00 0.00 60 1011.2
20260505004418 15 0.0 0.0 0.00 0.00 0.00 60 1011.2
20260505004347 15 0.0 0.0 0.00 0.00 0.00 60 1011.2
20260505004315 15 0.0 0.0 0.00 0.00 0.00 60 1011.2
20260505004244 15 0.0 0.0 0.00 0.00 0.00 60 1011.3
20260505004212 15 0.0 0.0 0.00 0.00 0.00 60 1011.3
20260505004140 15 0.0 0.0 0.00 0.00 0.00 60 1011.3
20260505004109 15 0.0 0.0 0.00 0.00 0.00 60 1011.3
20260505004037 15 0.0 0.0 0.00 0.00 0.00 60 1011.3
20260505004006 15 0.0 0.0 0.00 0.00 0.00 60 1011.3
20260505003934 15 0.0 0.0 0.00 0.00 0.00 60 1011.3
20260505003902 15 0.0 0.0 0.00 0.00 0.00 60 1011.3
20260505003831 15 0.0 0.0 0.00 0.00 0.00 60 1011.3
20260505003759 15 0.0 0.0 0.00 0.00 0.00 60 1011.3
20260505003728 15 0.0 0.0 0.00 0.00 0.00 60 1011.3
20260505003656 15 0.0 0.0 0.00 0.00 0.00 60 1011.3
20260505003625 15 0.0 0.0 0.00 0.00 0.00 60 1011.4
20260505003553 15 0.0 0.0 0.00 0.00 0.00 60 1011.3
20260505003522 15 0.0 0.0 0.00 0.00 0.00 60 1011.4
20260505003450 15 0.0 0.0 0.00 0.00 0.00 60 1011.4
20260505003419 15 0.0 0.0 0.00 0.00 0.00 60 1011.3
20260505003347 15 0.0 0.0 0.00 0.00 0.00 60 1011.3
20260505003316 15 0.0 0.0 0.00 0.00 0.00 60 1011.4
20260505003244 15 0.0 0.0 0.00 0.00 0.00 60 1011.4
20260505003213 15 0.0 0.0 0.00 0.00 0.00 60 1011.4
20260505003141 15 0.0 0.0 0.00 0.00 0.00 60 1011.4
20260505003109 15 0.0 0.0 0.00 0.00 0.00 60 1011.4
20260505003037 15 0.0 0.0 0.00 0.00 0.00 60 1011.5
20260505003005 15 0.0 0.0 0.00 0.00 0.00 60 1011.5
20260505002934 15 0.0 0.0 0.00 0.00 0.00 60 1011.4
20260505002902 15 0.0 0.0 0.00 0.00 0.00 60 1011.5
20260505002831 15 0.0 0.0 0.00 0.00 0.00 60 1011.5
20260505002759 15 0.0 0.0 0.00 0.00 0.00 60 1011.4
20260505002728 15 0.0 0.0 0.00 0.00 0.00 60 1011.5
20260505002656 15 0.0 0.0 0.00 0.00 0.00 59 1011.5
20260505002625 15 0.0 0.0 0.00 0.00 0.00 60 1011.5
20260505002553 15 0.0 0.0 0.00 0.00 0.00 60 1011.5
20260505002522 15 0.0 0.0 0.00 0.00 0.00 60 1011.5
20260505002450 15 0.0 0.0 0.00 0.00 0.00 60 1011.5
20260505002419 15 0.0 0.0 0.00 0.00 0.00 60 1011.5
20260505002347 15 0.0 0.0 0.00 0.00 0.00 60 1011.5
20260505002316 15 0.0 0.0 0.00 0.00 0.00 60 1011.5
20260505002244 15 0.0 0.0 0.00 0.00 0.00 60 1011.5
20260505002213 15 0.0 0.0 0.00 0.00 0.00 60 1011.5
20260505002141 15 0.0 0.0 0.00 0.00 0.00 60 1011.5
20260505002110 15 0.0 0.0 0.00 0.00 0.00 60 1011.5
20260505002038 15 0.0 0.0 0.00 0.00 0.00 60 1011.6
20260505002007 15 0.0 0.0 0.00 0.00 0.00 60 1011.5
20260505001935 15 0.0 0.0 0.00 0.00 0.00 60 1011.5
20260505001904 15 0.0 0.0 0.00 0.00 0.00 60 1011.5
20260505001832 15 0.0 0.0 0.00 0.00 0.00 60 1011.5
20260505001801 15 0.0 0.0 0.00 0.00 0.00 60 1011.5
20260505001729 15 0.0 0.0 0.00 0.00 0.00 60 1011.5
20260505001658 15 0.0 0.0 0.00 0.00 0.00 60 1011.5
20260505001626 15 0.0 0.0 0.00 0.00 0.00 60 1011.5
20260505001555 15 0.0 0.0 0.00 0.00 0.00 60 1011.5
20260505001523 15 0.0 0.0 0.00 0.00 0.00 60 1011.6
20260505001452 15 0.0 0.0 0.00 0.00 0.00 60 1011.6
20260505001420 15 0.0 0.0 0.00 0.00 0.00 60 1011.6
20260505001349 15 0.0 0.0 0.00 0.00 0.00 60 1011.6
20260505001317 15 0.0 0.0 0.00 0.00 0.00 60 1011.6
20260505001245 15 0.0 0.0 0.00 0.00 0.00 60 1011.6
20260505001214 15 0.0 0.0 0.00 0.00 0.00 60 1011.6
20260505001143 15 0.0 0.0 0.00 0.00 0.00 60 1011.6
20260505001111 15 0.0 0.0 0.00 0.00 0.00 60 1011.6
20260505001039 15 0.0 0.0 0.00 0.00 0.00 60 1011.6
20260505001008 15 0.0 0.0 0.00 0.00 0.00 60 1011.6
20260505000936 15 0.0 0.0 0.00 0.00 0.00 60 1011.6
20260505000905 15 0.0 0.0 0.00 0.00 0.00 60 1011.6
20260505000833 15 0.0 0.0 0.00 0.00 0.00 60 1011.7
20260505000802 15 0.0 0.0 0.00 0.00 0.00 60 1011.6
20260505000730 15 0.0 0.0 0.00 0.00 0.00 59 1011.6
20260505000658 15 0.0 0.0 0.00 0.00 0.00 59 1011.6
20260505000627 15 0.0 0.0 0.00 0.00 0.00 59 1011.6
20260505000556 15 0.0 0.0 0.00 0.00 0.00 59 1011.7
20260505000524 15 0.0 0.0 0.00 0.00 0.00 59 1011.7
20260505000452 15 0.0 0.0 0.00 0.00 0.00 59 1011.7
20260505000421 15 0.0 0.0 0.00 0.00 0.00 59 1011.7
20260505000351 15 0.0 0.0 0.00 0.00 0.00 59 1011.7
20260505000318 15 0.0 0.0 0.00 0.00 0.00 59 1011.7
20260505000246 15 0.0 0.0 0.00 0.00 0.00 59 1011.7
20260505000215 15 0.0 0.0 0.00 0.00 0.00 59 1011.7
20260505000143 15 0.0 0.0 0.00 0.00 0.00 59 1011.7
20260505000112 15 0.0 0.0 0.00 0.00 0.00 59 1011.7
20260505000040 15 0.0 0.0 0.00 0.00 0.00 59 1011.7
20260505000009 15 0.0 0.0 0.00 0.00 0.00 59 1011.7
20260504235937 15 0.0 0.0 0.00 0.00 0.00 59 1011.7
20260504235906 15 0.0 0.0 0.00 0.00 0.00 59 1011.7
20260504235834 15 0.0 0.0 0.00 0.00 0.00 59 1011.7
20260504235802 15 0.0 0.0 0.00 0.00 0.00 59 1011.7
20260504235731 15 0.0 0.0 0.00 0.00 0.00 59 1011.7
20260504235659 15 0.0 0.0 0.00 0.00 0.00 59 1011.7
20260504235628 15 0.0 0.0 0.00 0.00 0.00 59 1011.6
20260504235556 15 0.0 0.0 0.00 0.00 0.00 58 1011.7
20260504235525 15 0.0 0.0 0.00 0.00 0.00 58 1011.7
20260504235453 15 0.0 0.0 0.00 0.00 0.00 59 1011.7
20260504235422 15 0.0 0.0 0.00 0.00 0.00 58 1011.7
20260504235350 15 0.0 0.0 0.00 0.00 0.00 58 1011.7
20260504235318 15 0.0 0.0 0.00 0.00 0.00 58 1011.7
20260504235247 15 0.0 0.0 0.00 0.00 0.00 58 1011.7
20260504235215 15 0.0 0.0 0.00 0.00 0.00 58 1011.7
20260504235144 15 0.0 0.0 0.00 0.00 0.00 58 1011.7
20260504235112 15 0.0 0.0 0.00 0.00 0.00 58 1011.7
20260504235041 15 0.0 0.0 0.00 0.00 0.00 58 1011.6
20260504234937 15 0.0 0.0 0.00 0.00 0.00 58 1011.7
20260504234906 15 0.0 0.0 0.00 0.00 0.00 58 1011.6
20260504234834 15 0.0 0.0 0.00 0.00 0.00 58 1011.6
20260504234803 15 0.0 0.0 0.00 0.00 0.00 58 1011.6
20260504234731 15 0.0 0.0 0.00 0.00 0.00 58 1011.7
20260504234659 15 0.0 0.0 0.00 0.00 0.00 58 1011.6
20260504234628 15 0.0 0.0 0.00 0.00 0.00 58 1011.7
20260504234525 15 0.0 0.0 0.00 0.00 0.00 57 1011.6
20260504234453 15 0.0 0.0 0.00 0.00 0.00 57 1011.7
20260504234422 15 0.0 0.0 0.00 0.00 0.00 57 1011.7
20260504234350 15 0.0 0.0 0.00 0.00 0.00 57 1011.7
20260504234319 15 0.0 0.0 0.00 0.00 0.00 57 1011.7
20260504234247 15 0.0 0.0 0.00 0.00 0.00 57 1011.7
20260504234216 14 0.0 0.0 0.00 0.00 0.00 57 1011.7
20260504234144 14 0.0 0.0 0.00 0.00 0.00 57 1011.7
20260504234113 14 0.0 0.0 0.00 0.00 0.00 57 1011.7
20260504234041 14 0.0 0.0 0.00 0.00 0.00 57 1011.7
20260504234010 14 0.0 0.0 0.00 0.00 0.00 56 1011.7
20260504233938 14 0.0 0.0 0.00 0.00 0.00 56 1011.7
20260504233906 14 0.0 0.0 0.00 0.00 0.00 56 1011.7
20260504233835 14 0.0 0.0 0.00 0.00 0.00 56 1011.7
20260504233804 14 0.0 0.0 0.00 0.00 0.00 56 1011.7
20260504233732 14 0.0 0.0 0.00 0.00 0.00 56 1011.7
20260504233700 14 0.0 0.0 0.00 0.00 0.00 56 1011.7
20260504233629 14 0.0 0.0 0.00 0.00 0.00 56 1011.7
20260504233557 14 0.0 0.0 0.00 0.00 0.00 56 1011.7
20260504233526 14 0.0 0.0 0.00 0.00 0.00 56 1011.7
20260504233454 14 0.0 0.0 0.00 0.00 0.00 56 1011.8
20260504233423 14 0.0 0.0 0.00 0.00 0.00 56 1011.7
20260504233351 15 0.0 0.0 0.00 0.00 0.00 56 1011.7
20260504233320 15 0.0 0.0 0.00 0.00 0.00 56 1011.7
20260504233248 15 0.0 0.0 0.00 0.00 0.00 56 1011.7
20260504233217 15 0.0 0.0 0.00 0.00 0.00 56 1011.8
20260504233145 15 0.0 0.0 0.00 0.00 0.00 56 1011.7
20260504233114 15 0.0 0.0 0.00 0.00 0.00 56 1011.8
20260504233042 15 0.0 0.0 0.00 0.00 0.00 55 1011.7
20260504233011 15 0.0 0.0 0.00 0.00 0.00 55 1011.8
20260504232939 15 0.0 0.0 0.00 0.00 0.00 55 1011.7
20260504232908 15 0.0 0.0 0.00 0.00 0.00 55 1011.8
20260504232836 15 0.0 0.0 0.00 0.00 0.00 55 1011.7
20260504232805 15 0.0 0.0 0.00 0.00 0.00 55 1011.8
20260504232733 15 0.0 0.0 0.00 0.00 0.00 55 1011.8
20260504232702 15 0.0 0.0 0.00 0.00 0.00 55 1011.8
20260504232630 15 0.0 0.0 0.00 0.00 0.00 55 1011.8
20260504232559 15 0.0 0.0 0.00 0.00 0.00 55 1011.8
20260504232527 15 0.0 0.0 0.00 0.00 0.00 55 1011.8
20260504232456 15 0.0 0.0 0.00 0.00 0.00 55 1011.8
20260504232424 15 0.0 0.0 0.00 0.00 0.00 55 1011.8
20260504232353 15 0.0 0.0 0.00 0.00 0.00 55 1011.8
20260504232321 15 0.0 0.0 0.00 0.00 0.00 55 1011.8
20260504232250 15 0.0 0.0 0.00 0.00 0.00 55 1011.8
20260504232218 15 0.0 0.0 0.00 0.00 0.00 55 1011.8
20260504232147 15 0.0 0.0 0.00 0.00 0.00 55 1011.8
20260504232115 15 0.0 0.0 0.00 0.00 0.00 55 1011.8
20260504232043 15 0.0 0.0 0.00 0.00 0.00 55 1011.8
20260504232012 15 0.0 0.0 0.00 0.00 0.00 55 1011.8
20260504231940 15 0.0 0.0 0.00 0.00 0.00 55 1011.8
20260504231908 15 0.0 0.0 0.00 0.00 0.00 55 1011.8
20260504231837 15 0.0 0.0 0.00 0.00 0.00 55 1011.8
20260504231805 15 0.0 0.0 0.00 0.00 0.00 55 1011.8
20260504231734 15 0.0 0.0 0.00 0.00 0.00 54 1011.8
20260504231702 15 0.0 0.0 0.00 0.00 0.00 55 1011.8
20260504231630 15 0.0 0.0 0.00 0.00 0.00 55 1011.8
20260504231559 15 0.0 0.0 0.00 0.00 0.00 55 1011.8
20260504231527 15 0.0 0.0 0.00 0.00 0.00 55 1011.9
20260504231456 15 0.0 0.0 0.00 0.00 0.00 55 1011.9
20260504231424 15 0.0 0.0 0.00 0.00 0.00 54 1011.9
20260504231352 15 0.0 0.0 0.00 0.00 0.00 55 1011.9
20260504231321 15 0.0 0.0 0.00 0.00 0.00 55 1011.9
20260504231249 15 0.0 0.0 0.00 0.00 0.00 54 1011.9
20260504231218 15 0.0 0.0 0.00 0.00 0.00 54 1011.9
20260504231146 15 0.0 0.0 0.00 0.00 0.00 54 1011.9
20260504231115 15 0.0 0.0 0.00 0.00 0.00 54 1011.9
20260504231043 15 0.0 0.0 0.00 0.00 0.00 54 1011.9
20260504231012 15 0.0 0.0 0.00 0.00 0.00 54 1011.9
20260504230940 15 0.0 0.0 0.00 0.00 0.00 54 1011.9
20260504230909 15 0.0 0.0 0.00 0.00 0.00 54 1011.9
20260504230837 15 0.0 0.0 0.00 0.00 0.00 54 1011.8
20260504230806 15 0.0 0.0 0.00 0.00 0.00 54 1011.9
20260504230734 15 0.0 0.0 0.00 0.00 0.00 54 1011.9
20260504230703 15 0.0 0.0 0.00 0.00 0.00 54 1011.9
20260504230631 15 0.0 0.0 0.00 0.00 0.00 54 1011.9
20260504230600 15 0.0 0.0 0.00 0.00 0.00 54 1011.9
20260504230528 15 0.0 0.0 0.00 0.00 0.00 53 1011.9
20260504230457 15 0.0 0.0 0.00 0.00 0.00 53 1011.9
20260504230423 15 0.0 0.0 0.00 0.00 0.00 53 1011.9
20260504230352 15 0.0 0.0 0.00 0.00 0.00 53 1011.9
20260504230320 15 0.0 0.0 0.00 0.00 0.00 53 1011.9
20260504230249 15 0.0 0.0 0.00 0.00 0.00 53 1011.9
20260504230218 15 0.0 0.0 0.00 0.00 0.00 53 1011.9
20260504230146 15 0.0 0.0 0.00 0.00 0.00 53 1011.9
20260504230114 15 0.0 0.0 0.00 0.00 0.00 53 1012.0
20260504230043 15 0.0 0.0 0.00 0.00 0.00 53 1011.9
20260504230011 16 0.0 0.0 0.00 0.00 0.00 53 1011.9
20260504225938 16 0.0 0.0 0.00 0.00 0.00 53 1012.0
20260504225907 16 0.0 0.0 0.00 0.00 0.00 53 1011.9
20260504225835 16 0.0 0.0 0.00 0.00 0.00 53 1011.9
20260504225804 16 0.0 0.0 0.00 0.00 0.00 53 1011.9
20260504225732 16 0.0 0.0 0.00 0.00 0.00 53 1012.0
20260504225700 16 0.0 0.0 0.00 0.00 0.00 53 1012.0
20260504225629 16 0.0 0.0 0.00 0.00 0.00 53 1011.9
20260504225557 16 0.0 0.0 0.00 0.00 0.00 52 1011.9
20260504225526 16 0.0 0.0 0.00 0.00 0.00 52 1011.9
20260504225454 16 0.0 0.0 0.00 0.00 0.00 52 1011.9
20260504225423 16 0.0 0.0 0.00 0.00 0.00 52 1011.9
20260504225351 16 0.0 0.0 0.00 0.00 0.00 52 1011.9
20260504225320 16 0.0 0.0 0.00 0.00 0.00 52 1011.9
20260504225248 16 0.0 0.0 0.00 0.00 0.00 52 1011.9
20260504225217 16 0.0 0.0 0.00 0.00 0.00 51 1011.9
20260504225145 16 0.0 0.0 0.00 0.00 0.00 51 1011.9
20260504225113 16 0.0 0.0 0.00 0.00 0.00 51 1011.9
20260504225042 16 0.0 0.0 0.00 0.00 0.00 51 1011.9
20260504225010 16 0.0 0.0 0.00 0.00 0.00 51 1011.9
20260504224939 16 0.0 0.0 0.00 0.00 0.00 51 1011.9
20260504224907 16 0.0 0.0 0.00 0.00 0.00 51 1011.9
20260504224836 16 0.0 0.0 0.00 0.00 0.00 51 1011.9
20260504224804 16 0.0 0.0 0.00 0.00 0.00 51 1011.9
20260504224733 16 0.0 0.0 0.00 0.00 0.00 51 1011.9
20260504224701 16 0.0 0.0 0.00 0.00 0.00 51 1011.9
20260504224630 16 0.0 0.0 0.00 0.00 0.00 51 1011.9
20260504224558 16 0.0 0.0 0.00 0.00 0.00 51 1011.9
20260504224527 16 0.0 0.0 0.00 0.00 0.00 51 1011.9
20260504224455 16 0.0 0.0 0.00 0.00 0.00 51 1011.9
20260504224424 16 0.0 0.0 0.00 0.00 0.00 51 1011.9
20260504224352 16 0.0 0.0 0.00 0.00 0.00 51 1011.9
20260504224320 16 0.0 0.0 0.00 0.00 0.00 51 1011.9
20260504224249 16 0.0 0.0 0.00 0.00 0.00 51 1011.9
20260504224217 16 0.0 0.0 0.00 0.00 0.00 51 1011.9
20260504224146 16 0.0 0.0 0.00 0.00 0.00 51 1012.0
20260504224114 16 0.0 0.0 0.00 0.00 0.00 51 1012.0
20260504224043 16 0.0 0.0 0.00 0.00 0.00 51 1011.9
20260504224011 16 0.0 0.0 0.00 0.00 0.00 51 1012.0
20260504223940 16 0.0 0.0 0.00 0.00 0.00 50 1012.0
20260504223908 16 0.0 0.0 0.00 0.00 0.00 50 1012.0
20260504223837 16 0.0 0.0 0.00 0.00 0.00 50 1012.0
20260504223805 16 0.0 0.0 0.00 0.00 0.00 50 1012.0
20260504223734 16 0.0 0.0 0.00 0.00 0.00 50 1012.0
20260504223702 16 0.0 0.0 0.00 0.00 0.00 50 1012.0
20260504223631 16 0.0 0.0 0.00 0.00 0.00 50 1012.0
20260504223559 16 0.0 0.0 0.00 0.00 0.00 50 1012.0
20260504223528 16 0.0 0.0 0.00 0.00 0.00 50 1012.0
20260504223456 16 0.0 0.0 0.00 0.00 0.00 50 1012.0
20260504223424 16 0.0 0.0 0.00 0.00 0.00 50 1012.0
20260504223353 16 0.0 0.0 0.00 0.00 0.00 50 1012.0
20260504223321 16 0.0 0.0 0.00 0.00 0.00 50 1012.0
20260504223250 16 0.0 0.0 0.00 0.00 0.00 50 1012.0
20260504223218 16 0.0 0.0 0.00 0.00 0.00 50 1012.0
20260504223147 16 0.0 0.0 0.00 0.00 0.00 50 1012.0
20260504223115 16 0.0 0.0 0.00 0.00 0.00 50 1012.0
20260504223044 16 0.0 0.0 0.00 0.00 0.00 50 1012.0
20260504223012 16 0.0 0.0 0.00 0.00 0.00 50 1012.1
20260504222941 16 0.0 0.0 0.00 0.00 0.00 50 1012.1
20260504222909 16 0.0 0.0 0.00 0.00 0.00 50 1012.0
20260504222838 16 0.0 0.0 0.00 0.00 0.00 50 1012.1
20260504222806 16 0.0 0.0 0.00 0.00 0.00 50 1012.0
20260504222735 16 0.0 0.0 0.00 0.00 0.00 50 1012.0
20260504222703 16 0.0 0.0 0.00 0.00 0.00 50 1012.0
20260504222631 16 0.0 0.0 0.00 0.00 0.00 50 1012.0
20260504222600 16 0.0 0.0 0.00 0.00 0.00 50 1012.0
20260504222528 16 0.0 0.0 0.00 0.00 0.00 50 1012.0
20260504222457 16 0.0 0.0 0.00 0.00 0.00 49 1012.0
20260504222425 16 0.0 0.0 0.00 0.00 0.00 50 1012.0
20260504222354 17 0.0 0.0 0.00 0.00 0.00 50 1012.0
20260504222322 16 0.0 0.0 0.00 0.00 0.00 50 1012.0
20260504222251 16 0.0 0.0 0.00 0.00 0.00 50 1012.0
20260504222219 16 0.0 0.0 0.00 0.00 0.00 50 1012.0
20260504222147 16 0.0 0.0 0.00 0.00 0.00 50 1012.0
20260504222116 16 0.0 0.0 0.00 0.00 0.00 50 1012.1
20260504222044 16 0.0 0.0 0.00 0.00 0.00 49 1012.1
20260504222013 16 0.0 0.0 0.00 0.00 0.00 49 1012.1
20260504221941 16 0.0 0.0 0.00 0.00 0.00 49 1012.1
20260504221910 16 0.0 0.0 0.00 0.00 0.00 50 1012.1
20260504221838 16 0.0 0.0 0.00 0.00 0.00 49 1012.0
20260504221807 16 0.0 0.0 0.00 0.00 0.00 49 1012.1
20260504221735 16 0.0 0.0 0.00 0.00 0.00 49 1012.1
20260504221703 16 0.0 0.0 0.00 0.00 0.00 49 1012.1
20260504221631 16 0.0 0.0 0.00 0.00 0.00 49 1012.0
20260504221600 16 0.0 0.0 0.00 0.00 0.00 49 1012.1
20260504221528 16 0.0 0.0 0.00 0.00 0.00 49 1012.1
20260504221457 16 0.0 0.0 0.00 0.00 0.00 49 1012.1
20260504221425 16 0.0 0.0 0.00 0.00 0.00 49 1012.1
20260504221354 16 0.0 0.0 0.00 0.00 0.00 49 1012.1
20260504221322 16 0.0 0.0 0.00 0.00 0.00 49 1012.1
20260504221251 16 0.0 0.0 0.00 0.00 0.00 49 1012.1
20260504221219 17 0.0 0.0 0.00 0.00 0.00 49 1012.1
20260504221147 17 0.0 0.0 0.00 0.00 0.00 49 1012.1
20260504221116 17 0.0 0.0 0.00 0.00 0.00 49 1012.1
20260504221044 17 0.0 0.0 0.00 0.00 0.00 49 1012.0
20260504221013 17 0.0 0.0 0.00 0.00 0.00 49 1012.0
20260504220941 17 0.0 0.0 0.00 0.00 0.00 49 1012.0
20260504220910 17 0.0 0.0 0.00 0.00 0.00 50 1012.0
20260504220838 17 0.0 0.0 0.00 0.00 0.00 50 1012.0
20260504220807 17 0.0 0.0 0.00 0.00 0.00 50 1012.0
20260504220735 16 0.0 0.0 0.00 0.00 0.00 50 1011.9
20260504220704 16 0.0 0.0 0.00 0.00 0.00 50 1011.9
20260504220632 16 0.0 0.0 0.00 0.00 0.00 50 1011.9
20260504220559 16 0.0 0.0 0.00 0.00 0.00 50 1011.9
20260504220528 17 0.0 0.0 0.00 0.00 0.00 50 1011.9
20260504220456 17 0.0 0.0 0.00 0.00 0.00 50 1011.8
20260504220425 17 0.0 0.0 0.00 0.00 0.00 50 1011.8
20260504220353 17 0.0 0.0 0.00 0.00 0.00 50 1011.9
20260504220322 17 0.0 0.0 0.00 0.00 0.00 50 1011.9
20260504220250 17 0.0 0.0 0.00 0.00 0.00 50 1011.8
20260504220219 16 0.0 0.0 0.00 0.00 0.00 50 1011.9
20260504220147 16 0.0 0.0 0.00 0.00 0.00 50 1011.9
20260504220116 16 0.0 0.0 0.00 0.00 0.00 50 1011.9
20260504220044 16 0.0 0.0 0.00 0.00 0.00 50 1011.9
20260504220012 16 0.0 0.0 0.00 0.00 0.00 50 1011.9
20260504215941 16 0.0 0.0 0.00 0.00 0.00 50 1011.9
20260504215909 16 0.0 0.0 0.00 0.00 0.00 50 1011.9
20260504215838 16 0.0 0.0 0.00 0.00 0.00 51 1012.0
20260504215806 16 0.0 0.0 0.00 0.00 0.00 51 1012.0
20260504215735 16 0.0 0.0 0.00 0.00 0.00 50 1012.0
20260504215703 15 0.0 0.0 0.00 0.00 0.00 50 1012.0
20260504215632 15 0.0 0.0 0.00 0.00 0.00 51 1012.1
20260504215600 15 0.0 0.0 0.00 0.00 0.00 50 1012.1
20260504215528 15 0.0 0.0 0.00 0.00 0.00 50 1012.1
20260504215457 15 0.0 0.0 0.00 0.00 0.00 50 1012.1
20260504215425 15 0.0 0.0 0.00 0.00 0.00 50 1012.1
20260504215354 15 0.0 0.0 0.00 0.00 0.00 50 1012.1
20260504215322 15 0.0 0.0 0.00 0.00 0.00 50 1012.2
20260504215250 15 0.0 0.0 0.00 0.00 0.00 50 1012.2
20260504215219 15 0.0 0.0 0.00 0.00 0.00 50 1012.2
20260504215147 15 0.0 0.0 0.00 0.00 0.00 49 1012.2
20260504215116 15 0.0 0.0 0.00 0.00 0.00 49 1012.2
20260504215045 15 0.0 0.0 0.00 0.00 0.00 49 1012.1
20260504215013 15 0.0 0.0 0.00 0.00 0.00 49 1012.1
20260504214941 15 0.0 0.0 0.00 0.00 0.00 49 1012.0
20260504214910 15 0.0 0.0 0.00 0.00 0.00 49 1012.0
20260504214838 15 0.0 0.0 0.00 0.00 0.00 48 1012.0
20260504214807 15 0.0 0.0 0.00 0.00 0.00 48 1011.9
20260504214735 15 0.0 0.0 0.00 0.00 0.00 48 1011.9
20260504214704 15 0.0 0.0 0.00 0.00 0.00 48 1011.9
20260504214632 15 0.0 0.0 0.00 0.00 0.00 48 1011.8
20260504214601 15 0.0 0.0 0.00 0.00 0.00 48 1011.8
20260504214529 15 0.0 0.0 0.00 0.00 0.00 48 1011.8
20260504214458 15 0.0 0.0 0.00 0.00 0.00 48 1011.7
20260504214427 15 0.0 0.0 0.00 0.00 0.00 48 1011.7
20260504214355 15 0.0 0.0 0.00 0.00 0.00 48 1011.7
20260504214323 15 0.0 0.0 0.00 0.00 0.00 48 1011.7
20260504214252 15 0.0 0.0 0.00 0.00 0.00 48 1011.7
20260504214220 15 0.0 0.0 0.00 0.00 0.00 48 1011.7
20260504214149 15 0.0 0.0 0.00 0.00 0.00 48 1011.7
20260504214117 15 0.0 0.0 0.00 0.00 0.00 48 1011.6
20260504214046 15 0.0 0.0 0.00 0.00 0.00 48 1011.6
20260504213942 15 0.0 0.0 0.00 0.00 0.00 48 1011.6
20260504213911 15 0.0 0.0 0.00 0.00 0.00 48 1011.6
20260504213839 15 0.0 0.0 0.00 0.00 0.00 48 1011.6
20260504213808 15 0.0 0.0 0.00 0.00 0.00 48 1011.6
20260504213736 15 0.0 0.0 0.00 0.00 0.00 48 1011.6
20260504213705 15 0.0 0.0 0.00 0.00 0.00 48 1011.7
20260504213633 15 0.0 0.0 0.00 0.00 0.00 48 1011.6
20260504213602 15 0.0 0.0 0.00 0.00 0.00 48 1011.6
20260504213530 15 0.0 0.0 0.00 0.00 0.00 48 1011.6
20260504213458 15 0.0 0.0 0.00 0.00 0.00 48 1011.6
20260504213427 15 0.0 0.0 0.00 0.00 0.00 48 1011.6
20260504213355 15 0.0 0.0 0.00 0.00 0.00 47 1011.6
20260504213324 15 0.0 0.0 0.00 0.00 0.00 47 1011.6
20260504213252 15 0.0 0.0 0.00 0.00 0.00 47 1011.7
20260504213221 15 0.0 0.0 0.00 0.00 0.00 47 1011.6
20260504213149 16 0.0 0.0 0.00 0.00 0.00 47 1011.7
20260504213118 16 0.0 0.0 0.00 0.00 0.00 47 1011.6
20260504213046 16 0.0 0.0 0.00 0.00 0.00 47 1011.6
20260504213015 16 0.0 0.0 0.00 0.00 0.00 47 1011.6
20260504212943 16 0.0 0.0 0.00 0.00 0.00 47 1011.7
20260504212912 16 0.0 0.0 0.00 0.00 0.00 47 1011.6
20260504212840 16 0.0 0.0 0.00 0.00 0.00 47 1011.7
20260504212809 16 0.0 0.0 0.00 0.00 0.00 47 1011.7
20260504212737 16 0.0 0.0 0.00 0.00 0.00 47 1011.7
20260504212705 16 0.0 0.0 0.00 0.00 0.00 47 1011.7
20260504212634 16 0.0 0.0 0.00 0.00 0.00 47 1011.7
20260504212602 16 0.0 0.0 0.00 0.00 0.00 47 1011.7
20260504212531 16 0.0 0.0 0.00 0.00 0.00 47 1011.7
20260504212459 16 0.0 0.0 0.00 0.00 0.00 47 1011.7
20260504212427 16 0.0 0.0 0.00 0.00 0.00 47 1011.7
20260504212355 16 0.0 0.0 0.00 0.00 0.00 47 1011.7
20260504212324 16 0.0 0.0 0.00 0.00 0.00 47 1011.7
20260504212252 16 0.0 0.0 0.00 0.00 0.00 47 1011.7
20260504212221 16 0.0 0.0 0.00 0.00 0.00 47 1011.8
20260504212148 16 0.0 0.0 0.00 0.00 0.00 47 1011.7
20260504212117 16 0.0 0.0 0.00 0.00 0.00 47 1011.7
20260504212045 16 0.0 0.0 0.00 0.00 0.00 47 1011.7
20260504212013 16 0.0 0.0 0.00 0.00 0.00 47 1011.8
20260504211942 16 0.0 0.0 0.00 0.00 0.00 47 1011.8
20260504211910 16 0.0 0.0 0.00 0.00 0.00 47 1011.8
20260504211839 15 0.0 0.0 0.00 0.00 0.00 47 1011.8
20260504211807 15 0.0 0.0 0.00 0.00 0.00 47 1011.8
20260504211736 15 0.0 0.0 0.00 0.00 0.00 47 1011.8
20260504211704 15 0.0 0.0 0.00 0.00 0.00 47 1011.8
20260504211602 15 0.0 0.0 0.00 0.00 0.00 47 1011.8
20260504211529 16 0.0 0.0 0.00 0.00 0.00 47 1011.8
20260504211458 15 0.0 0.0 0.00 0.00 0.00 47 1011.8
20260504211426 15 0.0 0.0 0.00 0.00 0.00 47 1011.8
20260504211355 15 0.0 0.0 0.00 0.00 0.00 47 1011.8
20260504211323 15 0.0 0.0 0.00 0.00 0.00 47 1011.8
20260504211252 16 0.0 0.0 0.00 0.00 0.00 47 1011.8
20260504211220 16 0.0 0.0 0.00 0.00 0.00 47 1011.8
20260504211149 16 0.0 0.0 0.00 0.00 0.00 46 1011.9
20260504211117 16 0.0 0.0 0.00 0.00 0.00 46 1011.8
20260504211046 16 0.0 0.0 0.00 0.00 0.00 46 1011.9
20260504211014 16 0.0 0.0 0.00 0.00 0.00 46 1011.8
20260504210943 16 0.0 0.0 0.00 0.00 0.00 46 1011.8
20260504210911 16 0.0 0.0 0.00 0.00 0.00 46 1011.8
20260504210840 16 0.0 0.0 0.00 0.00 0.00 46 1011.8
20260504210808 16 0.0 0.0 0.00 0.00 0.00 46 1011.8
20260504210736 16 0.0 0.0 0.00 0.00 0.00 46 1011.8
20260504210705 16 0.0 0.0 0.00 0.00 0.00 46 1011.8
20260504210633 16 0.0 0.0 0.00 0.00 0.00 46 1011.8
20260504210602 16 0.0 0.0 0.00 0.00 0.00 46 1011.8
20260504210530 16 0.0 0.0 0.00 0.00 0.00 46 1011.8
20260504210458 16 0.0 0.0 0.00 0.00 0.00 46 1011.9
20260504210427 16 0.0 0.0 0.00 0.00 0.00 46 1011.9
20260504210355 16 0.0 0.0 0.00 0.00 0.00 46 1011.8
20260504210324 16 0.0 0.0 0.00 0.00 0.00 46 1011.8
20260504210252 16 0.0 0.0 0.00 0.00 0.00 46 1011.8
20260504210221 16 0.0 0.0 0.00 0.00 0.00 46 1011.8
20260504210149 16 0.0 0.0 0.00 0.00 0.00 46 1011.8
20260504210118 16 0.0 0.0 0.00 0.00 0.00 46 1011.8
20260504210046 16 0.0 0.0 0.00 0.00 0.00 46 1011.8
20260504210015 16 0.0 0.0 0.00 0.00 0.00 46 1011.8
20260504205943 16 0.0 0.0 0.00 0.00 0.00 46 1011.8
20260504205912 16 0.0 0.0 0.00 0.00 0.00 45 1011.8
20260504205840 16 0.0 0.0 0.00 0.00 0.00 45 1011.8
20260504205809 16 0.0 0.0 0.00 0.00 0.00 45 1011.8
20260504205737 16 0.0 0.0 0.00 0.00 0.00 45 1011.8
20260504205706 16 0.0 0.0 0.00 0.00 0.00 45 1011.7
20260504205634 16 0.0 0.0 0.00 0.00 0.00 45 1011.8
20260504205603 16 0.0 0.0 0.00 0.00 0.00 45 1011.8
20260504205531 16 0.0 0.0 0.00 0.00 0.00 45 1011.8
20260504205500 16 0.0 0.0 0.00 0.00 0.00 45 1011.8
20260504205427 16 0.0 0.0 0.00 0.00 0.00 45 1011.8
20260504205356 16 0.0 0.0 0.00 0.00 0.00 45 1011.8
20260504205324 16 0.0 0.0 0.00 0.00 0.00 45 1011.8
20260504205253 16 0.0 0.0 0.00 0.00 0.00 45 1011.8
20260504205221 16 0.0 0.0 0.00 0.00 0.00 45 1011.8
20260504205149 16 0.0 0.0 0.00 0.00 0.00 45 1011.8
20260504205118 16 0.0 0.0 0.00 0.00 0.00 45 1011.8
20260504205046 16 0.0 0.0 0.00 0.00 0.00 45 1011.8
20260504205015 16 0.0 0.0 0.00 0.00 0.00 45 1011.8
20260504204943 16 0.0 0.0 0.00 0.00 0.00 45 1011.8
20260504204912 16 0.0 0.0 0.00 0.00 0.00 45 1011.8
20260504204840 16 0.0 0.0 0.00 0.00 0.00 45 1011.8
20260504204809 16 0.0 0.0 0.00 0.00 0.00 45 1011.8
20260504204737 16 0.0 0.0 0.00 0.00 0.00 45 1011.8
20260504204706 16 0.0 0.0 0.00 0.00 0.00 45 1011.8
20260504204633 16 0.0 0.0 0.00 0.00 0.00 45 1011.7
20260504204602 16 0.0 0.0 0.00 0.00 0.00 45 1011.7
20260504204530 16 0.0 0.0 0.00 0.00 0.00 45 1011.8
20260504204459 16 0.0 0.0 0.00 0.00 0.00 45 1011.8
20260504204427 16 0.0 0.0 0.00 0.00 0.00 45 1011.7
20260504204356 16 0.0 0.0 0.00 0.00 0.00 45 1011.8
20260504204324 16 0.0 0.0 0.00 0.00 0.00 45 1011.7
20260504204253 16 0.0 0.0 0.00 0.00 0.00 45 1011.7
20260504204221 16 0.0 0.0 0.00 0.00 0.00 45 1011.7
20260504204150 16 0.0 0.0 0.00 0.00 0.00 44 1011.7
20260504204118 16 0.0 0.0 0.00 0.00 0.00 44 1011.7
20260504204047 16 0.0 0.0 0.00 0.00 0.00 44 1011.7
20260504204015 16 0.0 0.0 0.00 0.00 0.00 44 1011.7
20260504203943 16 0.0 0.0 0.00 0.00 0.00 44 1011.7
20260504203912 16 0.0 0.0 0.00 0.00 0.00 44 1011.7
20260504203840 16 0.0 0.0 0.00 0.00 0.00 44 1011.7
20260504203809 16 0.0 0.0 0.00 0.00 0.00 44 1011.8
20260504203737 16 0.0 0.0 0.00 0.00 0.00 44 1011.8
20260504203706 16 0.0 0.0 0.00 0.00 0.00 44 1011.7
20260504203634 16 0.0 0.0 0.00 0.00 0.00 44 1011.7
20260504203603 16 0.0 0.0 0.00 0.00 0.00 44 1011.7
20260504203531 16 0.0 0.0 0.00 0.00 0.00 44 1011.7
20260504203500 17 0.0 0.0 0.00 0.00 0.00 44 1011.7
20260504203428 17 0.0 0.0 0.00 0.00 0.00 44 1011.7
20260504203357 17 0.0 0.0 0.00 0.00 0.00 44 1011.7
20260504203325 17 0.0 0.0 0.00 0.00 0.00 44 1011.7
20260504203253 17 0.0 0.0 0.00 0.00 0.00 44 1011.7
20260504203222 17 0.0 0.0 0.00 0.00 0.00 44 1011.7
20260504203150 17 0.0 0.0 0.00 0.00 0.00 44 1011.7
20260504203119 17 0.0 0.0 0.00 0.00 0.00 44 1011.7
20260504203048 17 0.0 0.0 0.00 0.00 0.00 43 1011.7
20260504203015 17 0.0 0.0 0.00 0.00 0.00 43 1011.7
20260504202943 17 0.0 0.0 0.00 0.00 0.00 43 1011.7
20260504202912 17 0.0 0.0 0.00 0.00 0.00 43 1011.7
20260504202808 17 0.0 0.0 0.00 0.00 0.00 43 1011.7
20260504202737 17 0.0 0.0 0.00 0.00 0.00 43 1011.7
20260504202705 17 0.0 0.0 0.00 0.00 0.00 43 1011.7
20260504202634 17 0.0 0.0 0.00 0.00 0.00 43 1011.7
20260504202602 17 0.0 0.0 0.00 0.00 0.00 43 1011.6
20260504202531 17 0.0 0.0 0.00 0.00 0.00 43 1011.6
20260504202459 17 0.0 0.0 0.00 0.00 0.00 43 1011.6
20260504202428 17 0.0 0.0 0.00 0.00 0.00 43 1011.6
20260504202356 17 0.0 0.0 0.00 0.00 0.00 43 1011.6
20260504202325 17 0.0 0.0 0.00 0.00 0.00 43 1011.6
20260504202253 17 0.0 0.0 0.00 0.00 0.00 43 1011.6
20260504202221 17 0.0 0.0 0.00 0.00 0.00 43 1011.6
20260504202150 17 0.0 0.0 0.00 0.00 0.00 43 1011.5
20260504202118 17 0.0 0.0 0.00 0.00 0.00 43 1011.6
20260504202047 17 0.0 0.0 0.00 0.00 0.00 43 1011.6
20260504202015 17 0.0 0.0 0.00 0.00 0.00 43 1011.6
20260504201944 17 0.0 0.0 0.00 0.00 0.00 43 1011.6
20260504201912 17 0.0 0.0 0.00 0.00 0.00 43 1011.6
20260504201841 17 0.0 0.0 0.00 0.00 0.00 43 1011.6
20260504201809 17 0.0 0.0 0.00 0.00 0.00 43 1011.6
20260504201737 17 0.0 0.0 0.00 0.00 0.00 43 1011.5
20260504201706 17 0.0 0.0 0.00 0.00 0.00 43 1011.5
20260504201634 17 0.0 0.0 0.00 0.00 0.00 43 1011.6
20260504201603 17 0.0 0.0 0.00 0.00 0.00 43 1011.6
20260504201531 17 0.0 0.0 0.00 0.00 0.00 43 1011.5
20260504201500 17 0.0 0.0 0.00 0.00 0.00 42 1011.5
20260504201428 17 0.0 0.0 0.00 0.00 0.00 42 1011.5
20260504201357 17 0.0 0.0 0.00 0.00 0.00 42 1011.5
20260504201325 17 0.0 0.0 0.00 0.00 0.00 42 1011.5
20260504201253 17 0.0 0.0 0.00 0.00 0.00 42 1011.5
20260504201222 17 0.0 0.0 0.00 0.00 0.00 42 1011.5
20260504201150 17 0.0 0.0 0.00 0.00 0.00 42 1011.6
20260504201119 17 0.0 0.0 0.00 0.00 0.00 42 1011.5
20260504201048 17 0.0 0.0 0.00 0.00 0.00 42 1011.6
20260504201016 17 0.0 0.0 0.00 0.00 0.00 42 1011.6
20260504200945 17 0.0 0.0 0.00 0.00 0.00 42 1011.6
20260504200913 17 0.0 0.0 0.00 0.00 0.00 42 1011.5
20260504200841 17 0.0 0.0 0.00 0.00 0.00 42 1011.5
20260504200738 17 0.0 0.0 0.00 0.00 0.00 42 1011.5
20260504200707 17 0.0 0.0 0.00 0.00 0.00 42 1011.5
20260504200635 17 0.0 0.0 0.00 0.00 0.00 42 1011.5
20260504200604 17 0.0 0.0 0.00 0.00 0.00 42 1011.5
20260504200532 17 0.0 0.0 0.00 0.00 0.00 42 1011.5
20260504200501 17 0.0 0.0 0.00 0.00 0.00 42 1011.5
20260504200429 17 0.0 0.0 0.00 0.00 0.00 42 1011.5
20260504200357 17 0.0 0.0 0.00 0.00 0.00 42 1011.5
20260504200326 17 0.0 0.0 0.00 0.00 0.00 41 1011.5
20260504200254 17 0.0 0.0 0.00 0.00 0.00 41 1011.5
20260504200223 17 0.0 0.0 0.00 0.00 0.00 41 1011.5
20260504200151 17 0.0 0.0 0.00 0.00 0.00 41 1011.5
20260504200119 17 0.0 0.0 0.00 0.00 0.00 41 1011.5
20260504200047 17 0.0 0.0 0.00 0.00 0.00 41 1011.5
20260504200016 17 0.0 0.0 0.00 0.00 0.00 41 1011.5
20260504195944 17 0.0 0.0 0.00 0.00 0.00 41 1011.5
20260504195912 17 0.0 0.0 0.00 0.00 0.00 41 1011.5
20260504195841 17 0.0 0.0 0.00 0.00 0.00 41 1011.5
20260504195809 17 0.0 0.0 0.00 0.00 0.00 41 1011.5
20260504195738 17 0.0 0.0 0.00 0.00 0.00 41 1011.5
20260504195706 17 0.0 0.0 0.00 0.00 0.00 41 1011.5
20260504195635 18 0.0 0.0 0.00 0.00 0.00 41 1011.5
20260504195603 18 0.0 0.0 0.00 0.00 0.00 41 1011.5
20260504195532 18 0.0 0.0 0.00 0.00 0.00 41 1011.5
20260504195500 18 0.0 0.0 0.00 0.00 0.00 41 1011.5
20260504195429 18 0.0 0.0 0.00 0.00 0.00 41 1011.5
20260504195357 18 0.0 0.0 0.00 0.00 0.00 41 1011.5
20260504195326 18 0.0 0.0 0.00 0.00 0.00 40 1011.4
20260504195254 18 0.0 0.0 0.00 0.00 0.00 40 1011.4
20260504195223 18 0.0 0.0 0.00 0.00 0.00 40 1011.5
20260504195151 18 0.0 0.0 0.00 0.00 0.00 40 1011.4
20260504195119 18 0.0 0.0 0.00 0.00 0.00 40 1011.4
20260504195047 18 0.0 0.0 0.00 0.00 0.00 40 1011.4
20260504195016 18 0.0 0.0 0.00 0.00 0.00 40 1011.4
20260504194944 18 0.0 0.0 0.00 0.00 0.00 40 1011.4
20260504194912 18 0.0 0.0 0.00 0.00 0.00 40 1011.4
20260504194841 18 0.0 0.0 0.00 0.00 0.00 40 1011.4
20260504194809 18 0.0 0.0 0.00 0.00 0.00 40 1011.4
20260504194738 18 0.0 0.0 0.00 0.00 0.00 40 1011.4
20260504194706 18 0.0 0.0 0.00 0.00 0.00 40 1011.4
20260504194635 18 0.0 0.0 0.00 0.00 0.00 40 1011.4
20260504194603 18 0.0 0.0 0.00 0.00 0.00 40 1011.4
20260504194532 18 0.0 0.0 0.00 0.00 0.00 40 1011.5
20260504194500 18 0.0 0.0 0.00 0.00 0.00 40 1011.5
20260504194429 18 0.0 0.0 0.00 0.00 0.00 40 1011.4
20260504194357 18 0.0 0.0 0.00 0.00 0.00 39 1011.4
20260504194325 18 0.0 0.0 0.00 0.00 0.00 39 1011.4
20260504194254 18 0.0 0.0 0.00 0.00 0.00 39 1011.4
20260504194223 18 0.0 0.0 0.00 0.00 0.00 39 1011.4
20260504194151 18 0.0 0.0 0.00 0.00 0.00 39 1011.4
20260504194119 18 0.0 0.0 0.00 0.00 0.00 39 1011.4
20260504194048 18 0.0 0.0 0.00 0.00 0.00 39 1011.4
20260504194016 18 0.0 0.0 0.00 0.00 0.00 39 1011.4
20260504193945 18 0.0 0.0 0.00 0.00 0.00 39 1011.4
20260504193913 18 0.0 0.0 0.00 0.00 0.00 39 1011.4
20260504193842 18 0.0 0.0 0.00 0.00 0.00 39 1011.4
20260504193810 18 0.0 0.0 0.00 0.00 0.00 39 1011.4
20260504193739 18 0.0 0.0 0.00 0.00 0.00 39 1011.4
20260504193707 18 0.0 0.0 0.00 0.00 0.00 39 1011.4
20260504193635 18 0.0 0.0 0.00 0.00 0.00 39 1011.4
20260504193604 18 0.0 0.0 0.00 0.00 0.00 39 1011.4
20260504193532 18 0.0 0.0 0.00 0.00 0.00 39 1011.4
20260504193501 18 0.0 0.0 0.00 0.00 0.00 39 1011.4
20260504193429 18 0.0 0.0 0.00 0.00 0.00 39 1011.4
20260504193358 18 0.0 0.0 0.00 0.00 0.00 39 1011.4
20260504193326 18 0.0 0.0 0.00 0.00 0.00 39 1011.4
20260504193255 18 0.0 0.0 0.00 0.00 0.00 39 1011.4
20260504193224 18 0.0 0.0 0.00 0.00 0.00 38 1011.4
20260504193152 18 0.0 0.0 0.00 0.00 0.00 38 1011.4
20260504193120 19 0.0 0.0 0.00 0.00 0.00 38 1011.4
20260504193049 19 0.0 0.0 0.00 0.00 0.00 38 1011.4
20260504193017 19 0.0 0.0 0.00 0.00 0.00 38 1011.4
20260504192945 19 0.0 0.0 0.00 0.00 0.00 38 1011.4
20260504192914 19 0.0 0.0 0.00 0.00 0.00 38 1011.4
20260504192842 19 0.0 0.0 0.00 0.00 0.00 38 1011.4
20260504192739 19 0.0 0.0 0.00 0.00 0.00 38 1011.4
20260504192707 19 0.0 0.0 0.00 0.00 0.00 38 1011.4
20260504192636 19 0.0 0.0 0.00 0.00 0.00 38 1011.4
20260504192604 19 0.0 0.0 0.00 0.00 0.00 38 1011.4
20260504192533 19 0.0 0.0 0.00 0.00 0.00 38 1011.4
20260504192501 19 0.0 0.0 0.00 0.00 0.00 38 1011.4
20260504192430 19 0.0 0.0 0.00 0.00 0.00 38 1011.4
20260504192358 19 0.0 0.0 0.00 0.00 0.00 38 1011.4
20260504192327 19 0.0 0.0 0.00 0.00 0.00 38 1011.4
20260504192255 19 0.0 0.0 0.00 0.00 0.00 38 1011.4
20260504192224 19 0.0 0.0 0.00 0.00 0.00 38 1011.4
20260504192152 19 0.0 0.0 0.00 0.00 0.00 38 1011.4
20260504192121 19 0.0 0.0 0.00 0.00 0.00 38 1011.4
20260504192049 19 0.0 0.0 0.00 0.00 0.00 37 1011.4
20260504192018 19 0.0 0.0 0.00 0.00 0.00 37 1011.4
20260504191946 19 0.0 0.0 0.00 0.00 0.00 37 1011.4
20260504191915 19 0.0 0.0 0.00 0.00 0.00 37 1011.4
20260504191843 19 0.0 0.0 0.00 0.00 0.00 37 1011.4
20260504191812 19 0.0 0.0 0.00 0.00 0.00 37 1011.4
20260504191740 19 0.0 0.0 0.00 0.00 0.00 37 1011.3
20260504191708 19 0.0 0.0 0.00 0.00 0.00 37 1011.4
20260504191637 19 0.0 0.0 0.00 0.00 0.00 37 1011.4
20260504191605 19 0.0 0.0 0.00 0.00 0.00 37 1011.4
20260504191534 19 0.0 0.0 0.00 0.00 0.00 37 1011.4
20260504191502 20 0.0 0.0 0.00 0.00 0.00 37 1011.4
20260504191431 20 0.0 0.0 0.00 0.00 0.00 37 1011.4
20260504191359 20 0.0 0.0 0.00 0.00 0.00 37 1011.4
20260504191328 20 0.0 0.0 0.00 0.00 0.00 37 1011.4
20260504191256 20 0.0 0.0 0.00 0.00 0.00 37 1011.4
20260504191224 20 0.0 0.0 0.00 0.00 0.00 37 1011.4
20260504191153 20 0.0 0.0 0.00 0.00 0.00 37 1011.4
20260504191121 20 0.0 0.0 0.00 0.00 0.00 37 1011.4
20260504191048 20 0.0 0.0 0.00 0.00 0.00 37 1011.3
20260504191017 20 0.0 0.0 0.00 0.00 0.00 37 1011.3
20260504190945 20 0.0 0.0 0.00 0.00 0.00 37 1011.3
20260504190913 20 0.0 0.0 0.00 0.00 0.00 37 1011.3
20260504190842 20 0.0 0.0 0.00 0.00 0.00 37 1011.3
20260504190810 20 0.0 0.0 0.00 0.00 0.00 37 1011.3
20260504190738 20 0.0 0.0 0.00 0.00 0.00 37 1011.3
20260504190707 20 0.0 0.0 0.00 0.00 0.00 37 1011.3
20260504190635 20 0.0 0.0 0.00 0.00 0.00 37 1011.3
20260504190604 20 0.0 0.0 0.00 0.00 0.00 37 1011.3
20260504190531 20 0.0 0.0 0.00 0.00 0.00 36 1011.3
20260504190500 20 0.0 0.0 0.00 0.00 0.00 36 1011.3
20260504190428 20 0.0 0.0 0.00 0.00 0.00 36 1011.2
20260504190357 20 0.0 0.0 0.00 0.00 0.00 36 1011.3
20260504190324 20 0.0 0.0 0.00 0.00 0.00 36 1011.3
20260504190252 20 0.0 0.0 0.00 0.00 0.00 36 1011.3
20260504190221 20 0.0 0.0 0.00 0.00 0.00 36 1011.3
20260504190149 20 0.0 0.0 0.00 0.00 0.00 36 1011.3
20260504190118 20 0.0 0.0 0.00 0.00 0.00 36 1011.3
20260504190045 20 0.0 0.0 0.00 0.00 0.00 36 1011.3
20260504190013 20 0.0 0.0 0.00 0.00 0.00 36 1011.3
20260504185941 20 0.0 0.0 0.00 0.00 0.00 36 1011.3
20260504185910 20 0.0 0.0 0.00 0.00 0.00 36 1011.3
20260504185838 20 0.0 0.0 0.00 0.00 0.00 36 1011.3
20260504185807 20 0.0 0.0 0.00 0.00 0.00 36 1011.2
20260504185735 20 0.0 0.0 0.00 0.00 0.00 36 1011.2
20260504185703 20 0.0 0.0 0.00 0.00 0.00 36 1011.2
20260504185632 20 0.0 0.0 0.00 0.00 0.00 36 1011.2
20260504185601 20 0.0 0.0 0.00 0.00 0.00 36 1011.2
20260504185529 20 0.0 0.0 0.00 0.00 0.00 36 1011.2
20260504185457 20 0.0 0.0 0.00 0.00 0.00 36 1011.2
20260504185426 20 0.0 0.0 0.00 0.00 0.00 36 1011.2
20260504185354 20 0.0 0.0 0.00 0.00 0.00 36 1011.2
20260504185323 20 0.0 0.0 0.00 0.00 0.00 36 1011.2
20260504185251 20 0.0 0.0 0.00 0.00 0.00 36 1011.2
20260504185220 20 0.0 0.0 0.00 0.00 0.00 36 1011.2
20260504185148 20 0.0 0.0 0.00 0.00 0.00 36 1011.2
20260504185116 20 0.0 0.0 0.00 0.00 0.00 36 1011.2
20260504185045 20 0.0 0.0 0.00 0.00 0.00 36 1011.2
20260504185013 20 0.0 0.0 0.00 0.00 0.00 36 1011.1
20260504184942 20 0.0 0.0 0.00 0.00 0.00 35 1011.2
20260504184910 20 0.0 0.0 0.00 0.00 0.00 35 1011.2
20260504184840 20 0.0 0.0 0.00 0.00 0.00 35 1011.1
20260504184807 20 0.0 0.0 0.00 0.00 0.00 35 1011.1
20260504184736 20 0.0 0.0 0.00 0.00 0.00 35 1011.1
20260504184704 20 0.0 0.0 0.00 0.00 0.00 35 1011.1
20260504184632 20 0.0 0.0 0.00 0.00 0.00 35 1011.1
20260504184601 20 0.0 0.0 0.00 0.00 0.00 35 1011.1
20260504184529 20 0.0 0.0 0.00 0.00 0.00 35 1011.2
20260504184455 20 0.0 0.0 0.00 0.00 0.00 35 1011.1
20260504184423 20 0.0 0.0 0.00 0.00 0.00 35 1011.2
20260504184351 20 0.0 0.0 0.00 0.00 0.00 35 1011.2
20260504184320 20 0.0 0.0 0.00 0.00 0.00 35 1011.2
20260504184248 20 0.0 0.0 0.00 0.00 0.00 35 1011.2
20260504184216 20 0.0 0.0 0.00 0.00 0.00 35 1011.2
20260504184145 20 0.0 0.0 0.00 0.00 0.00 35 1011.2
20260504184112 20 0.0 0.0 0.00 0.00 0.00 35 1011.2
20260504184041 20 0.0 0.0 0.00 0.00 0.00 35 1011.2
20260504184009 20 0.0 0.0 0.00 0.00 0.00 35 1011.2
20260504183938 20 0.0 0.0 0.00 0.00 0.00 35 1011.2
20260504183906 20 0.0 0.0 0.00 0.00 0.00 35 1011.2
20260504183835 20 0.0 0.0 0.00 0.00 0.00 35 1011.2
20260504183803 21 0.0 0.0 0.00 0.00 0.00 34 1011.2
20260504183731 21 0.0 0.0 0.00 0.00 0.00 34 1011.2
20260504183700 21 0.0 0.0 0.00 0.00 0.00 34 1011.2
20260504183628 21 0.0 0.0 0.00 0.00 0.00 34 1011.2
20260504183557 21 0.0 0.0 0.00 0.00 0.00 34 1011.2
20260504183525 21 0.0 0.0 0.00 0.00 0.00 34 1011.2
20260504183454 21 0.0 0.0 0.00 0.00 0.00 34 1011.2
20260504183422 21 0.0 0.0 0.00 0.00 0.00 34 1011.1
20260504183351 21 0.0 0.0 0.00 0.00 0.00 34 1011.2
20260504183319 21 0.0 0.0 0.00 0.00 0.00 34 1011.2
20260504183248 21 0.0 0.0 0.00 0.00 0.00 34 1011.2
20260504183216 21 0.0 0.0 0.00 0.00 0.00 34 1011.2
20260504183145 21 0.0 0.0 0.00 0.00 0.00 34 1011.1
20260504183113 21 0.0 0.0 0.00 0.00 0.00 34 1011.1
20260504183041 21 0.0 0.0 0.00 0.00 0.00 34 1011.1
20260504183010 21 0.0 0.0 0.00 0.00 0.00 34 1011.1
20260504182939 21 0.0 0.0 0.00 0.00 0.00 33 1011.1
20260504182907 21 0.0 0.0 0.00 0.00 0.00 33 1011.1
20260504182835 21 0.0 0.0 0.00 0.00 0.00 33 1011.1
20260504182804 21 0.0 0.0 0.00 0.00 0.00 33 1011.1
20260504182733 21 0.0 0.0 0.00 0.00 0.00 33 1011.1
20260504182701 21 0.0 0.0 0.00 0.00 0.00 33 1011.1
20260504182629 21 0.0 0.0 0.00 0.00 0.00 33 1011.1
20260504182558 21 0.0 0.0 0.00 0.00 0.00 33 1011.1
20260504182526 21 0.0 0.0 0.00 0.00 0.00 33 1011.1
20260504182455 21 0.0 0.0 0.00 0.00 0.00 33 1011.1
20260504182423 21 0.0 0.0 0.00 0.00 0.00 33 1011.1
20260504182352 21 0.0 0.0 0.00 0.00 0.00 33 1011.1
20260504182320 21 0.0 0.0 0.00 0.00 0.00 33 1011.1
20260504182250 21 0.0 0.0 0.00 0.00 0.00 32 1011.2
20260504182217 21 0.0 0.0 0.00 0.00 0.00 32 1011.2
20260504182145 21 0.0 0.0 0.00 0.00 0.00 32 1011.2
20260504182114 21 0.0 0.0 0.00 0.00 0.00 32 1011.2
20260504182042 22 0.0 0.0 0.00 0.00 0.00 32 1011.2
20260504182011 22 0.0 0.0 0.00 0.00 0.00 32 1011.2
20260504181939 22 0.0 0.0 0.00 0.00 0.00 32 1011.2
20260504181907 22 0.0 0.0 0.00 0.00 0.00 32 1011.2
20260504181836 22 0.0 0.0 0.00 0.00 0.00 32 1011.2
20260504181804 22 0.0 0.0 0.00 0.00 0.00 32 1011.1
20260504181733 22 0.0 0.0 0.00 0.00 0.00 32 1011.2
20260504181701 22 0.0 0.0 0.00 0.00 0.00 32 1011.2
20260504181630 22 0.0 0.0 0.00 0.00 0.00 32 1011.2
20260504181558 22 0.0 0.0 0.00 0.00 0.00 32 1011.2
20260504181527 22 0.0 0.0 0.00 0.00 0.00 31 1011.2
20260504181455 22 0.0 0.0 0.00 0.00 0.00 31 1011.2
20260504181424 22 0.0 0.0 0.00 0.00 0.00 31 1011.2
20260504181352 22 0.0 0.0 0.00 0.00 0.00 31 1011.2
20260504181320 22 0.0 0.0 0.00 0.00 0.00 31 1011.1
20260504181249 22 0.0 0.0 0.00 0.00 0.00 31 1011.2
20260504181217 22 0.0 0.0 0.00 0.00 0.00 31 1011.1
20260504181145 22 0.0 0.0 0.00 0.00 0.00 31 1011.1
20260504181114 22 0.0 0.0 0.00 0.00 0.00 31 1011.1
20260504181042 22 0.0 0.0 0.00 0.00 0.00 31 1011.1
20260504180939 22 0.0 0.0 0.00 0.00 0.00 31 1011.2
20260504180907 22 0.0 0.0 0.00 0.00 0.00 31 1011.2
20260504180836 22 0.0 0.0 0.00 0.00 0.00 31 1011.1
20260504180803 22 0.0 0.0 0.00 0.00 0.00 31 1011.1
20260504180731 22 0.0 0.0 0.00 0.00 0.00 31 1011.2
20260504180700 22 0.0 0.0 0.00 0.00 0.00 31 1011.2
20260504180628 22 0.0 0.0 0.00 0.00 0.00 31 1011.2
20260504180556 22 0.0 0.0 0.00 0.00 0.00 31 1011.1
20260504180525 22 0.0 0.0 0.00 0.00 0.00 31 1011.2
20260504180453 22 0.0 0.0 0.00 0.00 0.00 31 1011.2
20260504180422 22 0.0 0.0 0.00 0.00 0.00 31 1011.2
20260504180350 22 0.0 0.0 0.00 0.00 0.00 31 1011.2
20260504180318 22 0.0 0.0 0.00 0.00 0.00 31 1011.2
20260504180247 22 0.0 0.0 0.00 0.00 0.00 31 1011.1
20260504180215 22 0.0 0.0 0.00 0.00 0.00 31 1011.1
20260504180143 22 0.0 0.0 0.00 0.00 0.00 31 1011.1
20260504180112 22 0.0 0.0 0.00 0.00 0.00 31 1011.1
20260504180040 22 0.0 0.0 0.00 0.00 0.00 31 1011.1
20260504180008 22 0.0 0.0 0.00 0.00 0.00 31 1011.2
20260504175936 22 0.0 0.0 0.00 0.00 0.00 31 1011.1
20260504175904 22 0.0 0.0 0.00 0.00 0.00 31 1011.1
20260504175833 22 0.0 0.0 0.00 0.00 0.00 31 1011.2
20260504175800 22 0.0 0.0 0.00 0.00 0.00 31 1011.2
20260504175729 22 0.0 0.0 0.00 0.00 0.00 31 1011.1
20260504175657 23 0.0 0.0 0.00 0.00 0.00 31 1011.1
20260504175626 23 0.0 0.0 0.00 0.00 0.00 31 1011.2
20260504175554 23 0.0 0.0 0.00 0.00 0.00 31 1011.1
20260504175522 23 0.0 0.0 0.00 0.00 0.00 31 1011.2
20260504175451 23 0.0 0.0 0.00 0.00 0.00 31 1011.2
20260504175419 23 0.0 0.0 0.00 0.00 0.00 31 1011.2
20260504175348 23 0.0 0.0 0.00 0.00 0.00 31 1011.2
20260504175316 23 0.0 0.0 0.00 0.00 0.00 31 1011.2
20260504175244 23 0.0 0.0 0.00 0.00 0.00 31 1011.2
20260504175213 23 0.0 0.0 0.00 0.00 0.00 31 1011.2
20260504175141 23 0.0 0.0 0.00 0.00 0.00 31 1011.2
20260504175109 23 0.0 0.0 0.00 0.00 0.00 31 1011.2
20260504175038 23 0.0 0.0 0.00 0.00 0.00 31 1011.2
20260504175006 23 0.0 0.0 0.00 0.00 0.00 30 1011.2
20260504174934 23 0.0 0.0 0.00 0.00 0.00 30 1011.2
20260504174903 23 0.0 0.0 0.00 0.00 0.00 30 1011.2
20260504174831 23 0.0 0.0 0.00 0.00 0.00 30 1011.2
20260504174759 23 0.0 0.0 0.00 0.00 0.00 30 1011.2
20260504174728 23 0.0 0.0 0.00 0.00 0.00 30 1011.2
20260504174656 23 0.0 0.0 0.00 0.00 0.00 30 1011.2
20260504174625 23 0.0 0.0 0.00 0.00 0.00 30 1011.2
20260504174553 23 0.0 0.0 0.00 0.00 0.00 30 1011.2
20260504174522 23 0.0 0.0 0.00 0.00 0.00 30 1011.3
20260504174450 23 0.0 0.0 0.00 0.00 0.00 30 1011.2
20260504174417 23 0.0 0.0 0.00 0.00 0.00 30 1011.2
20260504174346 23 0.0 0.0 0.00 0.00 0.00 30 1011.2
20260504174314 23 0.0 0.0 0.00 0.00 0.00 30 1011.2
20260504174213 23 0.0 0.0 0.00 0.00 0.00 30 1011.2
20260504174140 23 0.0 0.0 0.00 0.00 0.00 30 1011.2
20260504174109 23 0.0 0.0 0.00 0.00 0.00 30 1011.2
20260504174036 23 0.0 0.0 0.00 0.00 0.00 30 1011.2
20260504174005 23 0.0 0.0 0.00 0.00 0.00 30 1011.2
20260504173933 23 0.0 0.0 0.00 0.00 0.00 30 1011.2
20260504173902 23 0.0 0.0 0.00 0.00 0.00 30 1011.2
20260504173830 23 0.0 0.0 0.00 0.00 0.00 30 1011.2
20260504173727 23 0.0 0.0 0.00 0.00 0.00 30 1011.1
20260504173655 23 0.0 0.0 0.00 0.00 0.00 30 1011.2
20260504173623 23 0.0 0.0 0.00 0.00 0.00 30 1011.2
20260504173552 23 0.0 0.0 0.00 0.00 0.00 29 1011.2
20260504173520 23 0.0 0.0 0.00 0.00 0.00 29 1011.1
20260504173448 23 0.0 0.0 0.00 0.00 0.00 29 1011.2
20260504173417 23 0.0 0.0 0.00 0.00 0.00 29 1011.2
20260504173345 23 0.0 0.0 0.00 0.00 0.00 29 1011.2
20260504173314 23 0.0 0.0 0.00 0.00 0.00 29 1011.1
20260504173242 23 0.0 0.0 0.00 0.00 0.00 29 1011.2
20260504173208 23 0.0 0.0 0.00 0.00 0.00 29 1011.2
20260504173136 23 0.0 0.0 0.00 0.00 0.00 29 1011.2
20260504173105 23 0.0 0.0 0.00 0.00 0.00 29 1011.2
20260504173033 23 0.0 0.0 0.00 0.00 0.00 29 1011.2
20260504173001 23 0.0 0.0 0.00 0.00 0.00 29 1011.2
20260504172930 23 0.0 0.0 0.00 0.00 0.00 29 1011.2
20260504172859 23 0.0 0.0 0.00 0.00 0.00 29 1011.1
20260504172827 23 0.0 0.0 0.00 0.00 0.00 29 1011.1
20260504172755 23 0.0 0.0 0.00 0.00 0.00 29 1011.1
20260504172724 23 0.0 0.0 0.00 0.00 0.00 29 1011.2
20260504172652 23 0.0 0.0 0.00 0.00 0.00 29 1011.2
20260504172620 23 0.0 0.0 0.00 0.00 0.00 29 1011.2
20260504172548 23 0.0 0.0 0.00 0.00 0.00 29 1011.1
20260504172517 23 0.0 0.0 0.00 0.00 0.00 29 1011.1
20260504172445 23 0.0 0.0 0.00 0.00 0.00 29 1011.1
20260504172414 23 0.0 0.0 0.00 0.00 0.00 29 1011.1
20260504172342 23 0.0 0.0 0.00 0.00 0.00 29 1011.2
20260504172311 23 0.0 0.0 0.00 0.00 0.00 29 1011.1
20260504172239 23 0.0 0.0 0.00 0.00 0.00 29 1011.1
20260504172207 23 0.0 0.0 0.00 0.00 0.00 29 1011.1
20260504172135 23 0.0 0.0 0.00 0.00 0.00 29 1011.1
20260504172103 23 0.0 0.0 0.00 0.00 0.00 29 1011.1
20260504172031 23 0.0 0.0 0.00 0.00 0.00 28 1011.0
20260504171959 23 0.0 0.0 0.00 0.00 0.00 28 1011.1
20260504171928 23 0.0 0.0 0.00 0.00 0.00 28 1011.1
20260504171856 23 0.0 0.0 0.00 0.00 0.00 28 1011.1
20260504171825 23 0.0 0.0 0.00 0.00 0.00 28 1011.1
20260504171753 23 0.0 0.0 0.00 0.00 0.00 28 1011.1
20260504171722 23 0.0 0.0 0.00 0.00 0.00 28 1011.1
20260504171649 23 0.0 0.0 0.00 0.00 0.00 28 1011.0
20260504171617 23 0.0 0.0 0.00 0.00 0.00 28 1011.0
20260504171546 23 0.0 0.0 0.00 0.00 0.00 28 1011.0
20260504171514 23 0.0 0.0 0.00 0.00 0.00 28 1011.0
20260504171443 23 0.0 0.0 0.00 0.00 0.00 28 1011.0
20260504171410 23 0.0 0.0 0.00 0.00 0.00 28 1011.0
20260504171339 23 0.0 0.0 0.00 0.00 0.00 28 1011.1
20260504171306 23 0.0 0.0 0.00 0.00 0.00 28 1011.1
20260504171235 23 0.0 0.0 0.00 0.00 0.00 28 1011.1
20260504171203 23 0.0 0.0 0.00 0.00 0.00 28 1011.0
20260504171131 23 0.0 0.0 0.00 0.00 0.00 28 1011.1
20260504171059 23 0.0 0.0 0.00 0.00 0.00 27 1011.0
20260504171027 23 0.0 0.0 0.00 0.00 0.00 27 1011.0
20260504170956 23 0.0 0.0 0.00 0.00 0.00 28 1011.1
20260504170924 24 0.0 0.0 0.00 0.00 0.00 28 1011.1
20260504170853 24 0.0 0.0 0.00 0.00 0.00 28 1011.0
20260504170822 24 0.0 0.0 0.00 0.00 0.00 28 1011.0
20260504170750 24 0.0 0.0 0.00 0.00 0.00 28 1011.0
20260504170719 24 0.0 0.0 0.00 0.00 0.00 28 1011.1
20260504160441 27 0.0 0.0 0.00 0.00 0.00 25 1011.2
20260504160409 27 0.0 0.0 0.00 0.00 0.00 25 1011.2
20260504160338 27 0.0 0.0 0.00 0.00 0.00 25 1011.2
20260504160306 27 0.0 0.0 0.00 0.00 0.00 25 1011.2
20260504160235 27 0.0 0.0 0.00 0.00 0.00 25 1011.1
20260504160203 27 0.0 0.0 0.00 0.00 0.00 25 1011.2
20260504160130 27 0.0 0.0 0.00 0.00 0.00 25 1011.2
20260504151130 27 0.0 0.0 0.00 0.00 0.00 24 1011.2
20260504151058 27 0.0 0.0 0.00 0.00 0.00 24 1011.2
20260504151027 27 0.0 0.0 0.00 0.00 0.00 24 1011.2
20260504150955 27 0.0 0.0 0.00 0.00 0.00 24 1011.2
20260504150924 27 0.0 0.0 0.00 0.00 0.00 24 1011.2
20260504150852 27 0.0 0.0 0.00 0.00 0.00 24 1011.2
20260504150821 27 0.0 0.0 0.00 0.00 0.00 24 1011.2
20260504150749 27 0.0 0.0 0.00 0.00 0.00 24 1011.2
20260504150718 27 0.0 0.0 0.00 0.00 0.00 24 1011.1
20260504150646 27 0.0 0.0 0.00 0.00 0.00 24 1011.2
20260504150614 27 0.0 0.0 0.00 0.00 0.00 24 1011.2
20260504150543 27 0.0 0.0 0.00 0.00 0.00 24 1011.2
20260504150511 27 0.0 0.0 0.00 0.00 0.00 24 1011.2
20260504150440 27 0.0 0.0 0.00 0.00 0.00 24 1011.2
20260504150408 27 0.0 0.0 0.00 0.00 0.00 24 1011.2
20260504150337 27 0.0 0.0 0.00 0.00 0.00 24 1011.2
20260504150305 27 0.0 0.0 0.00 0.00 0.00 24 1011.2
20260504150233 27 0.0 0.0 0.00 0.00 0.00 24 1011.2
20260504150202 28 0.0 0.0 0.00 0.00 0.00 25 1011.3
20260504150130 28 0.0 0.0 0.00 0.00 0.00 25 1011.3